OAE2023 KBWI-LBSF

Flight info

Callsign OAE2023
Flight time 9h 14m
Altitude 37000
Route DUKPN1 BROSS Q419 RBV DCT EBONY N687B NEEKO/M083F390 DCT 54N050W 56N040W 57N030W 57N020W DCT PIKIL DCT SOVED/N0470F390 DCT IBROD DCT GOW DCT TLA DCT ERKIT/N0483F410 N110 DOLAS DCT NAVPI DCT SOGPO DCT ONUNE DCT BADGO DCT SWALM DCT VELIS DCT OKG DCT PEPIK DCT ERGUZ DCT PADGU DCT OSTOV M748 GOL
Aircraft B772/H-SDE2E3FGHIJ5LORVWXY/LB1D1

Departure

Time 2026-04-28 04:40
Airport Baltimore/Washington International Thurgood Marshall Airport (KBWI)

Arrival

Time 2026-04-28 13:54
Airport Sofia Airport (LBSF)
Time Latitude Longitude Altitude Speed Heading
2026-04-28 04:09 39.18538 -76.66726 167 ft 0 kts 296°
2026-04-28 04:27 39.18538 -76.66725 167 ft 1 kts 296°
2026-04-28 04:27 39.18532 -76.66708 167 ft 3 kts 296°
2026-04-28 04:27 39.18524 -76.66687 167 ft 2 kts 295°
2026-04-28 04:28 39.18515 -76.66668 167 ft 3 kts 330°
2026-04-28 04:28 39.18498 -76.66662 167 ft 3 kts 13°
2026-04-28 04:28 39.18480 -76.66671 167 ft 3 kts 39°
2026-04-28 04:28 39.18470 -76.66684 166 ft 2 kts 55°
2026-04-28 04:29 39.18461 -76.66701 166 ft 3 kts 55°
2026-04-28 04:29 39.18452 -76.66717 166 ft 2 kts 55°
2026-04-28 04:29 39.18452 -76.66718 166 ft 2 kts 55°
2026-04-28 04:31 39.18458 -76.66705 166 ft 10 kts 54°
2026-04-28 04:32 39.18510 -76.66611 166 ft 13 kts 54°
2026-04-28 04:32 39.18564 -76.66515 162 ft 13 kts 56°
2026-04-28 04:32 39.18566 -76.66429 157 ft 11 kts 129°
2026-04-28 04:32 39.18503 -76.66359 158 ft 17 kts 143°
2026-04-28 04:33 39.18406 -76.66268 158 ft 17 kts 142°
2026-04-28 04:33 39.18312 -76.66170 159 ft 17 kts 144°
2026-04-28 04:33 39.18213 -76.66079 160 ft 17 kts 144°
2026-04-28 04:33 39.18117 -76.65990 160 ft 13 kts 144°
2026-04-28 04:34 39.18060 -76.65984 158 ft 13 kts 200°
2026-04-28 04:34 39.17950 -76.66074 151 ft 24 kts 214°
2026-04-28 04:34 39.17762 -76.66235 158 ft 24 kts 212°
2026-04-28 04:34 39.17619 -76.66354 159 ft 24 kts 214°
2026-04-28 04:35 39.17523 -76.66436 156 ft 24 kts 214°
2026-04-28 04:35 39.17446 -76.66539 158 ft 10 kts 269°
2026-04-28 04:35 39.17456 -76.66686 162 ft 22 kts 275°
2026-04-28 04:35 39.17469 -76.66882 161 ft 22 kts 274°
2026-04-28 04:36 39.17515 -76.67064 164 ft 22 kts 314°
2026-04-28 04:36 39.17633 -76.67188 160 ft 22 kts 323°
2026-04-28 04:36 39.17758 -76.67301 159 ft 22 kts 324°
2026-04-28 04:36 39.17881 -76.67417 156 ft 22 kts 324°
2026-04-28 04:37 39.18005 -76.67532 159 ft 22 kts 324°
2026-04-28 04:37 39.18128 -76.67647 160 ft 22 kts 324°
2026-04-28 04:37 39.18252 -76.67763 160 ft 22 kts 324°
2026-04-28 04:37 39.18377 -76.67876 160 ft 22 kts 324°
2026-04-28 04:38 39.18501 -76.67990 160 ft 22 kts 324°
2026-04-28 04:38 39.18548 -76.68138 159 ft 17 kts 238°
2026-04-28 04:38 39.18488 -76.68152 159 ft 8 kts 145°
2026-04-28 04:38 39.18440 -76.68110 159 ft 8 kts 148°
2026-04-28 04:39 39.18388 -76.68060 160 ft 16 kts 143°
2026-04-28 04:39 39.18167 -76.67856 163 ft 71 kts 144°
2026-04-28 04:39 39.17564 -76.67297 163 ft 140 kts 144°
2026-04-28 04:39 39.16662 -76.66434 402 ft 174 kts 143°
2026-04-28 04:40 39.15680 -76.65390 1109 ft 186 kts 129°
2026-04-28 04:40 39.15044 -76.63927 1963 ft 191 kts 115°
2026-04-28 04:40 39.14512 -76.62379 2572 ft 190 kts 112°
2026-04-28 04:40 39.13996 -76.60724 2774 ft 208 kts 110°
2026-04-28 04:41 39.13451 -76.58924 3017 ft 221 kts 111°
2026-04-28 04:41 39.12859 -76.57053 3424 ft 229 kts 111°
2026-04-28 04:41 39.12213 -76.55097 3724 ft 244 kts 112°
2026-04-28 04:41 39.11534 -76.53068 4219 ft 247 kts 107°
2026-04-28 04:42 39.11395 -76.50887 4624 ft 247 kts 80°
2026-04-28 04:42 39.11720 -76.48692 5135 ft 250 kts 79°
2026-04-28 04:42 39.12029 -76.46504 5724 ft 253 kts 79°
2026-04-28 04:42 39.12337 -76.44241 6214 ft 260 kts 79°
2026-04-28 04:43 39.12644 -76.41925 6742 ft 265 kts 79°
2026-04-28 04:43 39.12948 -76.39563 7244 ft 269 kts 79°
2026-04-28 04:43 39.13249 -76.37178 7763 ft 271 kts 79°
2026-04-28 04:43 39.13550 -76.34765 8253 ft 275 kts 78°
2026-04-28 04:44 39.13853 -76.32307 8735 ft 279 kts 78°
2026-04-28 04:44 39.14156 -76.29826 9234 ft 282 kts 78°
2026-04-28 04:44 39.14463 -76.27305 9712 ft 286 kts 77°
2026-04-28 04:44 39.14772 -76.24750 10200 ft 290 kts 77°
2026-04-28 04:45 39.15092 -76.22115 10352 ft 306 kts 77°
2026-04-28 04:45 39.15430 -76.19324 10481 ft 324 kts 77°
2026-04-28 04:45 39.15785 -76.16376 10620 ft 343 kts 77°
2026-04-28 04:45 39.16159 -76.13253 10774 ft 362 kts 78°
2026-04-28 04:46 39.16545 -76.09996 11164 ft 374 kts 78°
2026-04-28 04:46 39.16941 -76.06641 11711 ft 382 kts 78°
2026-04-28 04:46 39.17340 -76.03242 12419 ft 386 kts 78°
2026-04-28 04:46 39.17745 -75.99801 13214 ft 390 kts 78°
2026-04-28 04:47 39.18155 -75.96318 13996 ft 396 kts 78°
2026-04-28 04:47 39.18573 -75.92786 14679 ft 398 kts 77°
2026-04-28 04:47 39.19318 -75.89404 15177 ft 400 kts 62°
2026-04-28 04:47 39.20781 -75.86366 15867 ft 399 kts 47°
2026-04-28 04:48 39.25048 -75.81419 17210 ft 403 kts 36°
2026-04-28 04:48 39.27189 -75.79142 17919 ft 407 kts 36°
2026-04-28 04:48 39.29387 -75.76786 18684 ft 412 kts 36°
2026-04-28 04:49 39.31595 -75.74394 19332 ft 416 kts 37°
2026-04-28 04:49 39.33811 -75.71974 20028 ft 419 kts 37°
2026-04-28 04:49 39.36048 -75.69519 20698 ft 423 kts 37°
2026-04-28 04:49 39.38293 -75.67049 21369 ft 426 kts 37°
2026-04-28 04:50 39.40576 -75.64536 22027 ft 430 kts 37°
2026-04-28 04:50 39.42865 -75.62016 22645 ft 434 kts 36°
2026-04-28 04:50 39.45172 -75.59476 23277 ft 437 kts 36°
2026-04-28 04:50 39.47499 -75.56920 23848 ft 441 kts 36°
2026-04-28 04:51 39.49822 -75.54369 24341 ft 444 kts 36°
2026-04-28 04:51 39.52177 -75.51779 24857 ft 446 kts 36°
2026-04-28 04:51 39.54543 -75.49172 25374 ft 447 kts 36°
2026-04-28 04:51 39.56920 -75.46551 25863 ft 449 kts 36°
2026-04-28 04:52 39.59301 -75.43924 26312 ft 451 kts 36°
2026-04-28 04:52 39.61698 -75.41277 26765 ft 453 kts 36°
2026-04-28 04:52 39.64108 -75.38615 27189 ft 455 kts 36°
2026-04-28 04:52 39.66525 -75.35944 27612 ft 457 kts 36°
2026-04-28 04:53 39.68949 -75.33263 28017 ft 458 kts 36°
2026-04-28 04:53 39.71352 -75.30602 28403 ft 460 kts 36°
2026-04-28 04:53 39.73794 -75.27895 28753 ft 462 kts 36°
2026-04-28 04:53 39.76247 -75.25173 29118 ft 463 kts 36°
2026-04-28 04:54 39.78682 -75.22420 29441 ft 466 kts 38°
2026-04-28 04:54 39.80966 -75.19394 29729 ft 472 kts 43°
2026-04-28 04:54 39.83122 -75.16154 29995 ft 474 kts 44°
2026-04-28 04:54 39.85267 -75.12889 30310 ft 474 kts 44°
2026-04-28 04:55 39.87409 -75.09636 30657 ft 473 kts 44°
2026-04-28 04:55 39.89554 -75.06404 30987 ft 471 kts 44°
2026-04-28 04:55 39.91707 -75.03179 31276 ft 470 kts 44°
2026-04-28 04:55 39.93853 -74.99969 31565 ft 470 kts 44°
2026-04-28 04:56 39.95973 -74.96789 31830 ft 470 kts 44°
2026-04-28 04:56 39.97999 -74.93416 32094 ft 474 kts 50°
2026-04-28 04:56 39.99839 -74.89843 32358 ft 475 kts 51°
2026-04-28 04:56 40.01646 -74.86244 32629 ft 475 kts 51°
2026-04-28 04:57 40.03455 -74.82626 32883 ft 474 kts 51°
2026-04-28 04:57 40.05264 -74.79025 33134 ft 474 kts 51°
2026-04-28 04:57 40.07078 -74.75435 33389 ft 474 kts 51°
2026-04-28 04:57 40.08902 -74.71836 33652 ft 474 kts 51°
2026-04-28 04:58 40.10721 -74.68251 33911 ft 474 kts 51°
2026-04-28 04:58 40.12542 -74.64660 34160 ft 474 kts 51°
2026-04-28 04:58 40.14335 -74.61119 34369 ft 474 kts 52°
2026-04-28 04:58 40.16158 -74.57517 34582 ft 475 kts 52°
2026-04-28 04:59 40.17979 -74.53910 34739 ft 476 kts 52°
2026-04-28 04:59 40.19836 -74.50328 34908 ft 475 kts 49°
2026-04-28 04:59 40.21904 -74.46973 35085 ft 471 kts 43°
2026-04-28 04:59 40.24152 -74.43840 35268 ft 471 kts 41°
2026-04-28 05:00 40.26423 -74.40737 35426 ft 472 kts 41°
2026-04-28 05:00 40.28702 -74.37633 35630 ft 472 kts 41°
2026-04-28 05:00 40.30976 -74.34522 35802 ft 473 kts 41°
2026-04-28 05:00 40.33220 -74.31436 35972 ft 474 kts 42°
2026-04-28 05:01 40.35495 -74.28288 36135 ft 475 kts 42°
2026-04-28 05:01 40.37762 -74.25138 36313 ft 475 kts 42°
2026-04-28 05:01 40.40029 -74.21979 36473 ft 476 kts 42°
2026-04-28 05:01 40.42213 -74.18930 36647 ft 477 kts 42°
2026-04-28 05:02 40.44490 -74.15745 36783 ft 478 kts 42°
2026-04-28 05:02 40.46769 -74.12555 36954 ft 478 kts 42°
2026-04-28 05:02 40.49043 -74.09370 37118 ft 478 kts 42°
2026-04-28 05:02 40.51327 -74.06168 37219 ft 480 kts 42°
2026-04-28 05:03 40.53617 -74.02954 37274 ft 482 kts 42°
2026-04-28 05:03 40.58177 -73.96545 37287 ft 481 kts 43°
2026-04-28 05:04 40.62744 -73.90109 37296 ft 480 kts 43°
2026-04-28 05:04 40.67309 -73.83665 37289 ft 480 kts 43°
2026-04-28 05:05 40.71865 -73.77221 37288 ft 480 kts 43°
2026-04-28 05:05 40.76413 -73.70774 37277 ft 480 kts 43°
2026-04-28 05:06 40.80928 -73.64359 37288 ft 479 kts 43°
2026-04-28 05:06 40.85468 -73.57896 37287 ft 479 kts 43°
2026-04-28 05:07 40.89990 -73.51443 37284 ft 479 kts 43°
2026-04-28 05:07 40.94515 -73.44973 37288 ft 478 kts 43°
2026-04-28 05:08 40.99036 -73.38493 37286 ft 478 kts 43°
2026-04-28 05:08 41.03513 -73.32064 37310 ft 477 kts 43°
2026-04-28 05:09 41.08012 -73.25589 37310 ft 477 kts 43°
2026-04-28 05:09 41.12507 -73.19106 37315 ft 477 kts 43°
2026-04-28 05:10 41.16995 -73.12618 37314 ft 477 kts 43°
2026-04-28 05:10 41.21478 -73.06123 37317 ft 477 kts 43°
2026-04-28 05:11 41.25959 -72.99618 37272 ft 477 kts 43°
2026-04-28 05:11 41.30435 -72.93106 37270 ft 477 kts 43°
2026-04-28 05:12 41.34156 -72.87680 37270 ft 477 kts 43°
2026-04-28 05:12 41.38631 -72.81142 37276 ft 477 kts 44°
2026-04-28 05:13 41.43109 -72.74586 37270 ft 477 kts 44°
2026-04-28 05:13 41.47543 -72.68080 37270 ft 477 kts 44°
2026-04-28 05:14 41.51998 -72.61528 37274 ft 477 kts 44°
2026-04-28 05:14 41.56453 -72.54961 37257 ft 476 kts 44°
2026-04-28 05:15 41.60894 -72.48402 37273 ft 476 kts 44°
2026-04-28 05:15 41.65334 -72.41829 37271 ft 475 kts 44°
2026-04-28 05:16 41.69758 -72.35265 37289 ft 475 kts 44°
2026-04-28 05:16 41.74152 -72.28732 37274 ft 474 kts 44°
2026-04-28 05:17 41.80763 -72.18872 37287 ft 473 kts 44°
2026-04-28 05:17 41.85160 -72.12298 37283 ft 472 kts 44°
2026-04-28 05:18 41.89538 -72.05736 37293 ft 471 kts 44°
2026-04-28 05:18 41.93879 -71.99217 37283 ft 471 kts 44°
2026-04-28 05:19 41.98241 -71.92651 37291 ft 470 kts 44°
2026-04-28 05:19 42.02591 -71.86089 37282 ft 469 kts 44°
2026-04-28 05:20 42.06935 -71.79520 37285 ft 469 kts 44°
2026-04-28 05:20 42.11273 -71.72947 37282 ft 469 kts 44°
2026-04-28 05:21 42.15575 -71.66413 37273 ft 468 kts 44°
2026-04-28 05:21 42.19895 -71.59839 37284 ft 468 kts 44°
2026-04-28 05:22 42.24215 -71.53248 37280 ft 468 kts 44°
2026-04-28 05:22 42.28516 -71.46671 37292 ft 467 kts 44°
2026-04-28 05:23 42.32813 -71.40088 37276 ft 467 kts 44°
2026-04-28 05:23 42.37099 -71.33504 37269 ft 466 kts 44°
2026-04-28 05:24 42.41358 -71.26947 37272 ft 465 kts 44°
2026-04-28 05:24 42.45636 -71.20348 37287 ft 464 kts 44°
2026-04-28 05:25 42.49869 -71.13803 37274 ft 464 kts 44°
2026-04-28 05:25 42.54120 -71.07216 37293 ft 463 kts 44°
2026-04-28 05:26 42.58359 -71.00632 37292 ft 463 kts 44°
2026-04-28 05:26 42.62597 -70.94035 37293 ft 463 kts 44°
2026-04-28 05:27 42.66796 -70.87484 37295 ft 462 kts 44°
2026-04-28 05:27 42.71024 -70.80873 37288 ft 462 kts 44°
2026-04-28 05:28 42.75239 -70.74267 37286 ft 462 kts 45°
2026-04-28 05:28 42.79451 -70.67651 37284 ft 462 kts 45°
2026-04-28 05:29 42.83663 -70.61022 37285 ft 462 kts 45°
2026-04-28 05:29 42.87876 -70.54375 37283 ft 463 kts 45°
2026-04-28 05:30 42.92057 -70.47762 37294 ft 463 kts 45°
2026-04-28 05:30 42.96268 -70.41088 37288 ft 464 kts 45°
2026-04-28 05:31 43.00485 -70.34388 37295 ft 464 kts 45°
2026-04-28 05:31 43.04693 -70.27687 37298 ft 465 kts 45°
2026-04-28 05:32 43.08902 -70.20969 37306 ft 465 kts 45°
2026-04-28 05:32 43.13107 -70.14241 37305 ft 465 kts 45°
2026-04-28 05:33 43.17309 -70.07505 37303 ft 465 kts 46°
2026-04-28 05:33 43.21487 -70.00790 37298 ft 465 kts 46°
2026-04-28 05:34 43.25623 -69.94110 37253 ft 450 kts 44°
2026-04-28 05:34 43.29666 -69.87584 37312 ft 449 kts 44°
2026-04-28 05:35 43.33728 -69.81024 37322 ft 451 kts 44°
2026-04-28 05:35 43.37773 -69.74470 37321 ft 454 kts 44°
2026-04-28 05:36 43.41859 -69.67829 37327 ft 456 kts 44°
2026-04-28 05:36 43.45958 -69.61150 37324 ft 457 kts 44°
2026-04-28 05:37 43.50060 -69.54450 37326 ft 458 kts 45°
2026-04-28 05:37 43.54171 -69.47720 37322 ft 458 kts 45°
2026-04-28 05:38 43.58252 -69.41025 37322 ft 458 kts 45°
2026-04-28 05:38 43.62360 -69.34268 37326 ft 458 kts 45°
2026-04-28 05:39 43.66453 -69.27521 37322 ft 459 kts 45°
2026-04-28 05:39 43.70547 -69.20759 37328 ft 459 kts 45°
2026-04-28 05:40 43.74644 -69.13974 37328 ft 459 kts 45°
2026-04-28 05:40 43.78446 -69.07664 37328 ft 460 kts 46°
2026-04-28 05:41 43.82546 -69.00843 37340 ft 461 kts 46°
2026-04-28 05:41 43.86650 -68.94000 37339 ft 462 kts 46°
2026-04-28 05:42 43.90753 -68.87143 37339 ft 462 kts 46°
2026-04-28 05:42 43.94832 -68.80308 37340 ft 463 kts 46°
2026-04-28 05:43 43.98948 -68.73396 37334 ft 464 kts 46°
2026-04-28 05:43 44.03062 -68.66469 37329 ft 465 kts 47°
2026-04-28 05:44 44.07189 -68.59506 37332 ft 466 kts 47°
2026-04-28 05:44 44.11285 -68.52578 37334 ft 467 kts 47°
2026-04-28 05:45 44.15422 -68.45561 37349 ft 468 kts 47°
2026-04-28 05:45 44.19553 -68.38539 37336 ft 469 kts 47°
2026-04-28 05:46 44.23692 -68.31487 37356 ft 470 kts 47°
2026-04-28 05:46 44.27824 -68.24429 37373 ft 470 kts 47°
2026-04-28 05:47 44.31962 -68.17343 37362 ft 471 kts 48°
2026-04-28 05:47 44.36101 -68.10237 37359 ft 471 kts 48°
2026-04-28 05:48 44.40224 -68.03142 37362 ft 472 kts 48°
2026-04-28 05:48 44.44364 -67.96000 37351 ft 473 kts 48°
2026-04-28 05:49 44.48501 -67.88845 37351 ft 473 kts 48°
2026-04-28 05:49 44.52649 -67.81653 37351 ft 474 kts 49°
2026-04-28 05:50 44.56787 -67.74458 37353 ft 474 kts 49°
2026-04-28 05:50 44.60918 -67.67260 37351 ft 474 kts 49°
2026-04-28 05:51 44.65061 -67.60022 37351 ft 475 kts 49°
2026-04-28 05:51 44.69204 -67.52766 37347 ft 475 kts 49°
2026-04-28 05:52 44.73301 -67.45572 37353 ft 475 kts 49°
2026-04-28 05:52 44.77440 -67.38285 37355 ft 475 kts 49°
2026-04-28 05:53 44.81569 -67.30997 37350 ft 476 kts 49°
2026-04-28 05:53 44.85690 -67.23706 37353 ft 476 kts 49°
2026-04-28 05:54 44.89862 -67.16451 37353 ft 475 kts 46°
2026-04-28 05:54 44.94625 -67.10111 37362 ft 472 kts 39°
2026-04-28 05:55 44.99635 -67.04082 37357 ft 473 kts 38°
2026-04-28 05:55 45.04644 -66.98029 37354 ft 473 kts 39°
2026-04-28 05:56 45.09636 -66.91928 37357 ft 474 kts 39°
2026-04-28 05:56 45.14604 -66.85814 37360 ft 474 kts 39°
2026-04-28 05:57 45.19583 -66.79668 37360 ft 474 kts 39°
2026-04-28 05:57 45.24551 -66.73521 37366 ft 474 kts 39°
2026-04-28 05:58 45.29489 -66.67399 37362 ft 474 kts 39°
2026-04-28 05:58 45.34453 -66.61230 37366 ft 474 kts 39°
2026-04-28 05:59 45.39419 -66.55043 37372 ft 474 kts 39°
2026-04-28 05:59 45.43544 -66.49894 37369 ft 474 kts 39°
2026-04-28 06:00 45.48502 -66.43690 37368 ft 474 kts 39°
2026-04-28 06:00 45.53465 -66.37465 37367 ft 474 kts 39°
2026-04-28 06:01 45.58415 -66.31241 37364 ft 474 kts 40°
2026-04-28 06:01 45.63330 -66.25045 37365 ft 474 kts 40°
2026-04-28 06:02 45.68273 -66.18800 37365 ft 474 kts 40°
2026-04-28 06:02 45.73215 -66.12539 37362 ft 475 kts 40°
2026-04-28 06:03 45.78157 -66.06264 37362 ft 475 kts 40°
2026-04-28 06:03 45.83103 -65.99967 37361 ft 475 kts 40°
2026-04-28 06:04 45.88046 -65.93660 37364 ft 475 kts 40°
2026-04-28 06:04 45.92957 -65.87378 37370 ft 475 kts 40°
2026-04-28 06:05 45.97893 -65.81047 37363 ft 475 kts 40°
2026-04-28 06:05 46.02834 -65.74695 37362 ft 475 kts 40°
2026-04-28 06:06 46.07765 -65.68339 37362 ft 476 kts 40°
2026-04-28 06:06 46.12698 -65.61966 37357 ft 476 kts 40°
2026-04-28 06:07 46.17620 -65.55589 37358 ft 476 kts 40°
2026-04-28 06:07 46.22515 -65.49232 37357 ft 476 kts 40°
2026-04-28 06:08 46.27429 -65.42835 37361 ft 476 kts 40°
2026-04-28 06:08 46.32352 -65.36410 37361 ft 476 kts 40°
2026-04-28 06:09 46.37244 -65.30009 37363 ft 476 kts 40°
2026-04-28 06:09 46.42160 -65.23560 37363 ft 476 kts 40°
2026-04-28 06:10 46.47072 -65.17100 37360 ft 476 kts 40°
2026-04-28 06:10 46.51944 -65.10677 37365 ft 476 kts 40°
2026-04-28 06:11 46.56851 -65.04191 37364 ft 476 kts 40°
2026-04-28 06:11 46.61756 -64.97691 37362 ft 476 kts 40°
2026-04-28 06:12 46.66652 -64.91185 37355 ft 476 kts 41°
2026-04-28 06:12 46.71540 -64.84675 37357 ft 476 kts 41°
2026-04-28 06:13 46.76398 -64.78187 37357 ft 476 kts 41°
2026-04-28 06:13 46.81278 -64.71655 37354 ft 475 kts 41°
2026-04-28 06:14 46.86148 -64.65117 37357 ft 475 kts 41°
2026-04-28 06:14 46.91015 -64.58568 37356 ft 475 kts 41°
2026-04-28 06:15 46.95876 -64.52009 37366 ft 475 kts 41°
2026-04-28 06:15 47.00701 -64.45482 37364 ft 475 kts 41°
2026-04-28 06:16 47.05559 -64.38893 37364 ft 475 kts 41°
2026-04-28 06:16 47.10417 -64.32287 37363 ft 475 kts 41°
2026-04-28 06:17 47.15269 -64.25672 37362 ft 475 kts 41°
2026-04-28 06:18 47.22536 -64.15733 37369 ft 475 kts 41°
2026-04-28 06:18 47.27346 -64.09133 37374 ft 475 kts 41°
2026-04-28 06:19 47.32183 -64.02477 37354 ft 475 kts 41°
2026-04-28 06:19 47.37016 -63.95810 37361 ft 475 kts 41°
2026-04-28 06:20 47.41831 -63.89151 37365 ft 475 kts 41°
2026-04-28 06:20 47.46660 -63.82454 37385 ft 475 kts 41°
2026-04-28 06:21 47.51481 -63.75751 37370 ft 475 kts 41°
2026-04-28 06:21 47.56296 -63.69038 37368 ft 475 kts 41°
2026-04-28 06:22 47.61109 -63.62311 37369 ft 475 kts 41°
2026-04-28 06:22 47.65920 -63.55567 37374 ft 475 kts 41°
2026-04-28 06:23 47.70688 -63.48867 37373 ft 475 kts 41°
2026-04-28 06:23 47.75483 -63.42111 37373 ft 475 kts 41°
2026-04-28 06:24 47.80283 -63.35329 37377 ft 475 kts 42°
2026-04-28 06:24 47.85066 -63.28554 37376 ft 475 kts 42°
2026-04-28 06:25 47.89857 -63.21749 37374 ft 475 kts 42°
2026-04-28 06:25 47.94633 -63.14948 37378 ft 475 kts 42°
2026-04-28 06:26 47.99382 -63.08166 37377 ft 475 kts 42°
2026-04-28 06:26 48.04153 -63.01334 37382 ft 475 kts 42°
2026-04-28 06:27 48.08925 -62.94484 37378 ft 475 kts 42°
2026-04-28 06:27 48.13657 -62.87671 37379 ft 475 kts 42°
2026-04-28 06:28 48.18422 -62.80792 37381 ft 475 kts 42°
2026-04-28 06:28 48.23177 -62.73909 37381 ft 475 kts 42°
2026-04-28 06:29 48.27925 -62.67019 37381 ft 474 kts 42°
2026-04-28 06:29 48.32637 -62.60162 37380 ft 474 kts 42°
2026-04-28 06:30 48.37370 -62.53254 37384 ft 474 kts 42°
2026-04-28 06:30 48.42099 -62.46334 37383 ft 474 kts 42°
2026-04-28 06:31 48.46823 -62.39402 37388 ft 474 kts 42°
2026-04-28 06:31 48.51545 -62.32455 37384 ft 474 kts 42°
2026-04-28 06:32 48.56264 -62.25492 37383 ft 474 kts 43°
2026-04-28 06:32 48.60974 -62.18524 37393 ft 474 kts 43°
2026-04-28 06:33 48.65656 -62.11577 37384 ft 474 kts 43°
2026-04-28 06:33 48.70364 -62.04575 37386 ft 474 kts 43°
2026-04-28 06:34 48.75064 -61.97563 37391 ft 474 kts 43°
2026-04-28 06:34 48.79764 -61.90532 37389 ft 474 kts 43°
2026-04-28 06:35 48.84420 -61.83547 37383 ft 474 kts 43°
2026-04-28 06:35 48.89107 -61.76496 37384 ft 474 kts 43°
2026-04-28 06:36 48.93783 -61.69442 37388 ft 474 kts 43°
2026-04-28 06:36 48.98456 -61.62374 37389 ft 474 kts 43°
2026-04-28 06:37 49.03131 -61.55282 37385 ft 474 kts 43°
2026-04-28 06:37 49.07804 -61.48173 37391 ft 474 kts 43°
2026-04-28 06:38 49.12443 -61.41098 37384 ft 474 kts 43°
2026-04-28 06:38 49.17109 -61.33960 37391 ft 474 kts 43°
2026-04-28 06:39 49.21768 -61.26812 37382 ft 474 kts 43°
2026-04-28 06:39 49.26426 -61.19646 37392 ft 474 kts 43°
2026-04-28 06:40 49.31083 -61.12461 37390 ft 474 kts 43°
2026-04-28 06:40 49.35732 -61.05267 37385 ft 475 kts 43°
2026-04-28 06:41 49.40352 -60.98099 37394 ft 475 kts 43°
2026-04-28 06:41 49.45000 -60.90866 37385 ft 475 kts 43°
2026-04-28 06:42 49.49638 -60.83628 37392 ft 475 kts 43°
2026-04-28 06:42 49.54272 -60.76376 37382 ft 475 kts 43°
2026-04-28 06:43 49.58913 -60.69092 37379 ft 476 kts 43°
2026-04-28 06:43 49.63513 -60.61851 37378 ft 476 kts 43°
2026-04-28 06:44 49.68139 -60.54548 37380 ft 476 kts 44°
2026-04-28 06:44 49.72769 -60.47218 37395 ft 476 kts 44°
2026-04-28 06:45 49.77396 -60.39871 37384 ft 476 kts 44°
2026-04-28 06:45 49.82020 -60.32508 37383 ft 477 kts 44°
2026-04-28 06:46 49.86638 -60.25132 37383 ft 477 kts 44°
2026-04-28 06:46 49.90471 -60.18993 37383 ft 477 kts 44°
2026-04-28 06:47 49.95085 -60.11585 37384 ft 477 kts 44°
2026-04-28 06:47 49.99694 -60.04163 37383 ft 477 kts 44°
2026-04-28 06:48 50.04303 -59.96719 37383 ft 477 kts 44°
2026-04-28 06:48 50.08873 -59.89315 37380 ft 477 kts 44°
2026-04-28 06:49 50.13481 -59.81828 37381 ft 478 kts 44°
2026-04-28 06:49 50.18077 -59.74339 37378 ft 478 kts 44°
2026-04-28 06:50 50.22644 -59.66874 37376 ft 478 kts 44°
2026-04-28 06:50 50.27243 -59.59337 37376 ft 478 kts 44°
2026-04-28 06:51 50.31834 -59.51788 37372 ft 479 kts 44°
2026-04-28 06:51 50.36429 -59.44210 37372 ft 479 kts 44°
2026-04-28 06:52 50.41008 -59.36636 37372 ft 479 kts 44°
2026-04-28 06:52 50.45587 -59.29039 37373 ft 479 kts 44°
2026-04-28 06:53 50.50140 -59.21461 37372 ft 479 kts 44°
2026-04-28 06:53 50.54710 -59.13834 37368 ft 479 kts 44°
2026-04-28 06:54 50.59287 -59.06172 37368 ft 479 kts 44°
2026-04-28 06:54 50.63821 -58.98557 37370 ft 479 kts 44°
2026-04-28 06:55 50.68372 -58.90892 37364 ft 479 kts 44°
2026-04-28 06:55 50.72924 -58.83202 37366 ft 479 kts 44°
2026-04-28 06:56 50.77473 -58.75492 37364 ft 479 kts 44°
2026-04-28 06:56 50.82000 -58.67798 37366 ft 480 kts 44°
2026-04-28 06:57 50.86538 -58.60059 37361 ft 480 kts 44°
2026-04-28 06:57 50.91092 -58.52271 37359 ft 481 kts 44°
2026-04-28 06:58 50.95637 -58.44472 37360 ft 481 kts 44°
2026-04-28 06:58 51.00146 -58.36712 37358 ft 481 kts 44°
2026-04-28 06:59 51.04684 -58.28878 37361 ft 481 kts 44°
2026-04-28 06:59 51.09219 -58.21026 37361 ft 482 kts 44°
2026-04-28 07:00 51.13752 -58.13151 37361 ft 482 kts 44°
2026-04-28 07:00 51.18250 -58.05314 37359 ft 482 kts 44°
2026-04-28 07:01 51.22775 -57.97403 37363 ft 482 kts 44°
2026-04-28 07:01 51.27287 -57.89492 37361 ft 482 kts 44°
2026-04-28 07:02 51.31800 -57.81554 37366 ft 482 kts 44°
2026-04-28 07:02 51.36276 -57.73655 37365 ft 482 kts 44°
2026-04-28 07:03 51.40787 -57.65670 37368 ft 483 kts 44°
2026-04-28 07:03 51.45291 -57.57672 37362 ft 483 kts 44°
2026-04-28 07:04 51.49790 -57.49658 37361 ft 483 kts 44°
2026-04-28 07:04 51.54285 -57.41624 37364 ft 483 kts 44°
2026-04-28 07:05 51.58750 -57.33619 37362 ft 484 kts 44°
2026-04-28 07:05 51.63238 -57.25546 37367 ft 484 kts 44°
2026-04-28 07:06 51.67726 -57.17448 37365 ft 484 kts 45°
2026-04-28 07:06 51.72206 -57.09337 37360 ft 484 kts 45°
2026-04-28 07:07 51.76687 -57.01199 37358 ft 484 kts 45°
2026-04-28 07:07 51.81161 -56.93049 37349 ft 485 kts 45°
2026-04-28 07:08 51.85602 -56.84931 37345 ft 485 kts 45°
2026-04-28 07:08 51.90066 -56.76745 37325 ft 485 kts 45°
2026-04-28 07:09 51.94522 -56.68546 37343 ft 485 kts 45°
2026-04-28 07:09 51.98984 -56.60311 37331 ft 485 kts 45°
2026-04-28 07:10 52.03434 -56.52069 37326 ft 486 kts 45°
2026-04-28 07:10 52.07886 -56.43798 37324 ft 486 kts 45°
2026-04-28 07:11 52.12339 -56.35496 37320 ft 487 kts 45°
2026-04-28 07:11 52.16763 -56.27222 37312 ft 487 kts 45°
2026-04-28 07:12 52.21208 -56.18881 37299 ft 488 kts 45°
2026-04-28 07:12 52.25655 -56.10506 37286 ft 488 kts 45°
2026-04-28 07:13 52.30095 -56.02117 37280 ft 488 kts 45°
2026-04-28 07:13 52.34527 -55.93718 37277 ft 488 kts 45°
2026-04-28 07:14 52.38910 -55.85198 37280 ft 491 kts 49°
2026-04-28 07:14 52.42511 -55.75620 37283 ft 497 kts 59°
2026-04-28 07:15 52.45588 -55.65489 37283 ft 498 kts 60°
2026-04-28 07:15 52.48637 -55.55326 37286 ft 498 kts 59°
2026-04-28 07:16 52.51719 -55.45152 37283 ft 498 kts 59°
2026-04-28 07:16 52.54821 -55.34953 37285 ft 499 kts 59°
2026-04-28 07:17 52.57925 -55.24722 37279 ft 499 kts 59°
2026-04-28 07:17 52.61017 -55.14485 37275 ft 500 kts 59°
2026-04-28 07:18 52.64096 -55.04239 37275 ft 500 kts 59°
2026-04-28 07:18 52.67156 -54.94010 37281 ft 500 kts 60°
2026-04-28 07:19 52.70243 -54.83647 37287 ft 501 kts 60°
2026-04-28 07:19 52.73306 -54.73321 37274 ft 501 kts 60°
2026-04-28 07:20 52.76343 -54.63036 37282 ft 502 kts 60°
2026-04-28 07:20 52.79398 -54.52647 37279 ft 502 kts 60°
2026-04-28 07:21 52.82443 -54.42244 37279 ft 502 kts 60°
2026-04-28 07:21 52.85458 -54.31901 37281 ft 503 kts 60°
2026-04-28 07:22 52.90000 -54.16231 37282 ft 503 kts 60°
2026-04-28 07:22 52.93025 -54.05739 37286 ft 504 kts 60°
2026-04-28 07:23 52.96038 -53.95239 37280 ft 504 kts 60°
2026-04-28 07:23 52.99044 -53.84720 37289 ft 504 kts 60°
2026-04-28 07:24 53.02040 -53.74186 37285 ft 505 kts 60°
2026-04-28 07:24 53.05033 -53.63616 37287 ft 505 kts 60°
2026-04-28 07:25 53.08000 -53.53092 37287 ft 506 kts 61°
2026-04-28 07:25 53.10972 -53.42499 37287 ft 506 kts 61°
2026-04-28 07:26 53.13948 -53.31846 37290 ft 507 kts 61°
2026-04-28 07:26 53.16915 -53.21175 37295 ft 507 kts 61°
2026-04-28 07:27 53.19873 -53.10487 37296 ft 507 kts 61°
2026-04-28 07:27 53.22811 -52.99822 37300 ft 508 kts 61°
2026-04-28 07:28 53.25756 -52.89084 37298 ft 508 kts 61°
2026-04-28 07:28 53.28695 -52.78315 37300 ft 508 kts 61°
2026-04-28 07:29 53.31622 -52.67544 37309 ft 509 kts 62°
2026-04-28 07:29 53.34520 -52.56824 37303 ft 509 kts 62°
2026-04-28 07:30 53.37433 -52.46001 37307 ft 510 kts 62°
2026-04-28 07:30 53.40345 -52.35132 37307 ft 510 kts 62°
2026-04-28 07:31 53.43223 -52.24338 37305 ft 510 kts 62°
2026-04-28 07:31 53.46112 -52.13447 37310 ft 510 kts 62°
2026-04-28 07:32 53.48990 -52.02549 37309 ft 511 kts 62°
2026-04-28 07:32 53.51863 -51.91617 37312 ft 511 kts 62°
2026-04-28 07:33 53.54730 -51.80652 37314 ft 511 kts 62°
2026-04-28 07:33 53.57566 -51.69755 37311 ft 512 kts 62°
2026-04-28 07:34 53.60415 -51.58755 37318 ft 512 kts 63°
2026-04-28 07:34 53.63254 -51.47741 37307 ft 512 kts 63°
2026-04-28 07:35 53.65603 -51.38587 37307 ft 512 kts 63°
2026-04-28 07:35 53.68422 -51.27551 37316 ft 513 kts 63°
2026-04-28 07:36 53.71235 -51.16481 37313 ft 513 kts 63°
2026-04-28 07:36 53.74039 -51.05395 37316 ft 513 kts 63°
2026-04-28 07:37 53.76837 -50.94274 37316 ft 514 kts 63°
2026-04-28 07:37 53.79624 -50.83143 37320 ft 514 kts 63°
2026-04-28 07:38 53.82385 -50.72063 37318 ft 514 kts 63°
2026-04-28 07:38 53.85160 -50.60865 37317 ft 515 kts 64°
2026-04-28 07:39 53.87926 -50.49650 37315 ft 515 kts 64°
2026-04-28 07:39 53.90662 -50.38500 37312 ft 515 kts 64°
2026-04-28 07:40 53.93402 -50.27274 37314 ft 515 kts 64°
2026-04-28 07:40 53.96135 -50.16018 37312 ft 515 kts 64°
2026-04-28 07:41 53.98856 -50.04761 37311 ft 515 kts 64°
2026-04-28 07:41 54.01598 -49.93499 37308 ft 515 kts 63°
2026-04-28 07:42 54.04427 -49.82280 37309 ft 515 kts 63°
2026-04-28 07:42 54.07247 -49.71121 37309 ft 515 kts 63°
2026-04-28 07:43 54.10028 -49.59998 37294 ft 515 kts 64°
2026-04-28 07:43 54.12844 -49.48635 37313 ft 516 kts 64°
2026-04-28 07:44 54.15605 -49.37423 37316 ft 516 kts 64°
2026-04-28 07:44 54.18378 -49.26107 37302 ft 516 kts 64°
2026-04-28 07:45 54.21143 -49.14769 37303 ft 516 kts 64°
2026-04-28 07:45 54.23893 -49.03433 37298 ft 516 kts 64°
2026-04-28 07:46 54.26632 -48.92087 37298 ft 516 kts 64°
2026-04-28 07:46 54.29361 -48.80721 37300 ft 516 kts 64°
2026-04-28 07:47 54.32080 -48.69338 37294 ft 516 kts 64°
2026-04-28 07:47 54.34774 -48.57998 37291 ft 516 kts 65°
2026-04-28 07:48 54.37469 -48.46597 37286 ft 517 kts 65°
2026-04-28 07:48 54.40151 -48.35188 37287 ft 517 kts 65°
2026-04-28 07:49 54.42829 -48.23737 37284 ft 517 kts 65°
2026-04-28 07:49 54.45489 -48.12302 37280 ft 517 kts 65°
2026-04-28 07:50 54.48154 -48.00784 37276 ft 517 kts 65°
2026-04-28 07:50 54.50808 -47.89248 37275 ft 517 kts 65°
2026-04-28 07:51 54.53448 -47.77710 37272 ft 518 kts 66°
2026-04-28 07:51 54.56061 -47.66231 37271 ft 518 kts 66°
2026-04-28 07:52 54.58679 -47.54665 37270 ft 518 kts 66°
2026-04-28 07:52 54.61288 -47.43075 37267 ft 518 kts 66°
2026-04-28 07:53 54.63890 -47.31452 37265 ft 518 kts 66°
2026-04-28 07:53 54.66481 -47.19814 37260 ft 518 kts 66°
2026-04-28 07:54 54.69042 -47.08250 37258 ft 518 kts 66°
2026-04-28 07:54 54.71608 -46.96595 37255 ft 518 kts 66°
2026-04-28 07:55 54.74161 -46.84932 37251 ft 518 kts 67°
2026-04-28 07:55 54.76709 -46.73229 37249 ft 519 kts 67°
2026-04-28 07:56 54.79242 -46.61527 37249 ft 519 kts 67°
2026-04-28 07:56 54.81768 -46.49791 37243 ft 519 kts 67°
2026-04-28 07:57 54.84283 -46.38034 37240 ft 519 kts 67°
2026-04-28 07:57 54.86770 -46.26347 37238 ft 519 kts 67°
2026-04-28 07:58 54.89262 -46.14567 37232 ft 520 kts 68°
2026-04-28 07:58 54.91744 -46.02765 37239 ft 520 kts 68°
2026-04-28 07:59 54.94216 -45.90942 37231 ft 520 kts 68°
2026-04-28 07:59 54.96679 -45.79090 37227 ft 520 kts 68°
2026-04-28 08:00 54.99113 -45.67312 37224 ft 520 kts 68°
2026-04-28 08:00 55.01553 -45.55434 37219 ft 520 kts 68°
2026-04-28 08:01 55.03980 -45.43548 37221 ft 520 kts 68°
2026-04-28 08:01 55.06395 -45.31647 37211 ft 520 kts 69°
2026-04-28 08:02 55.08799 -45.19732 37212 ft 521 kts 69°
2026-04-28 08:02 55.11193 -45.07794 37211 ft 521 kts 69°
2026-04-28 08:03 55.13560 -44.95920 37210 ft 521 kts 69°
2026-04-28 08:03 55.15932 -44.83942 37206 ft 521 kts 69°
2026-04-28 08:04 55.18295 -44.71944 37197 ft 521 kts 69°
2026-04-28 08:04 55.20644 -44.59936 37193 ft 522 kts 69°
2026-04-28 08:05 55.22987 -44.47890 37192 ft 522 kts 69°
2026-04-28 08:05 55.25301 -44.35914 37189 ft 522 kts 70°
2026-04-28 08:06 55.27619 -44.23841 37188 ft 522 kts 70°
2026-04-28 08:06 55.29927 -44.11748 37185 ft 522 kts 70°
2026-04-28 08:07 55.32218 -43.99669 37180 ft 522 kts 70°
2026-04-28 08:07 55.34501 -43.87549 37177 ft 522 kts 70°
2026-04-28 08:08 55.36756 -43.75509 37169 ft 522 kts 70°
2026-04-28 08:08 55.39010 -43.63388 37166 ft 521 kts 70°
2026-04-28 08:09 55.41255 -43.51242 37164 ft 521 kts 70°
2026-04-28 08:09 55.43487 -43.39089 37159 ft 521 kts 71°
2026-04-28 08:10 55.45664 -43.27155 37159 ft 521 kts 71°
2026-04-28 08:10 55.47873 -43.14963 37157 ft 521 kts 71°
2026-04-28 08:11 55.49697 -43.04839 37153 ft 521 kts 71°
2026-04-28 08:11 55.51044 -42.97325 37151 ft 521 kts 71°
2026-04-28 08:12 55.53224 -42.85104 37357 ft 523 kts 71°
2026-04-28 08:12 55.54310 -42.78982 37644 ft 521 kts 71°
2026-04-28 08:12 55.55387 -42.72889 37931 ft 520 kts 71°
2026-04-28 08:13 55.56462 -42.66793 38184 ft 519 kts 71°
2026-04-28 08:13 55.57532 -42.60701 38406 ft 519 kts 72°
2026-04-28 08:13 55.58599 -42.54603 38600 ft 519 kts 72°
2026-04-28 08:13 55.59664 -42.48501 38796 ft 519 kts 72°
2026-04-28 08:14 55.60728 -42.42378 38957 ft 519 kts 72°
2026-04-28 08:14 55.61788 -42.36265 39039 ft 520 kts 72°
2026-04-28 08:14 55.63904 -42.23991 39123 ft 521 kts 72°
2026-04-28 08:15 55.65992 -42.11797 39125 ft 521 kts 72°
2026-04-28 08:15 55.68085 -41.99487 39127 ft 521 kts 72°
2026-04-28 08:16 55.70165 -41.87167 39123 ft 521 kts 72°
2026-04-28 08:16 55.72230 -41.74851 39117 ft 520 kts 73°
2026-04-28 08:17 55.74270 -41.62602 39114 ft 520 kts 73°
2026-04-28 08:17 55.76308 -41.50275 39110 ft 520 kts 73°
2026-04-28 08:18 55.78335 -41.37924 39107 ft 520 kts 73°
2026-04-28 08:18 55.80349 -41.25572 39105 ft 520 kts 73°
2026-04-28 08:19 55.82351 -41.13195 39103 ft 520 kts 73°
2026-04-28 08:19 55.84339 -41.00823 39099 ft 520 kts 73°
2026-04-28 08:20 55.86303 -40.88507 39096 ft 520 kts 74°
2026-04-28 08:20 55.88269 -40.76091 39092 ft 520 kts 74°
2026-04-28 08:21 55.90222 -40.63659 39092 ft 521 kts 74°
2026-04-28 08:21 55.92163 -40.51218 39089 ft 521 kts 74°
2026-04-28 08:22 55.94091 -40.38765 39085 ft 521 kts 74°
2026-04-28 08:22 55.95685 -40.28400 39081 ft 521 kts 75°
2026-04-28 08:23 55.97903 -40.13863 39074 ft 521 kts 75°
2026-04-28 08:23 55.99481 -40.03457 39074 ft 521 kts 75°
2026-04-28 08:24 56.01333 -39.90928 39071 ft 521 kts 76°
2026-04-28 08:24 56.03112 -39.78351 39070 ft 521 kts 76°
2026-04-28 08:25 56.04876 -39.65741 39064 ft 521 kts 76°
2026-04-28 08:26 56.07496 -39.46947 39064 ft 521 kts 76°
2026-04-28 08:26 56.09240 -39.34345 39055 ft 521 kts 76°
2026-04-28 08:27 56.10971 -39.21738 39058 ft 521 kts 77°
2026-04-28 08:27 56.12688 -39.09122 39055 ft 521 kts 77°
2026-04-28 08:28 56.14392 -38.96486 39056 ft 521 kts 77°
2026-04-28 08:28 56.16082 -38.83854 39052 ft 521 kts 77°
2026-04-28 08:29 56.17761 -38.71199 39046 ft 520 kts 77°
2026-04-28 08:29 56.19412 -38.58637 39047 ft 520 kts 78°
2026-04-28 08:30 56.21065 -38.45963 39044 ft 520 kts 78°
2026-04-28 08:30 56.22699 -38.33320 39041 ft 519 kts 78°
2026-04-28 08:31 56.24320 -38.20669 39038 ft 519 kts 78°
2026-04-28 08:31 56.25929 -38.07996 39037 ft 519 kts 78°
2026-04-28 08:32 56.27524 -37.95323 39041 ft 519 kts 78°
2026-04-28 08:32 56.29107 -37.82631 39034 ft 519 kts 78°
2026-04-28 08:33 56.30665 -37.70025 39034 ft 519 kts 79°
2026-04-28 08:33 56.32219 -37.57342 39028 ft 519 kts 79°
2026-04-28 08:34 56.33761 -37.44632 39030 ft 519 kts 79°
2026-04-28 08:34 56.35289 -37.31926 39030 ft 519 kts 79°
2026-04-28 08:35 56.36805 -37.19196 39032 ft 519 kts 79°
2026-04-28 08:35 56.38308 -37.06465 39032 ft 519 kts 79°
2026-04-28 08:36 56.39789 -36.93795 39028 ft 519 kts 80°
2026-04-28 08:36 56.41267 -36.81027 39023 ft 519 kts 80°
2026-04-28 08:37 56.42731 -36.68256 39029 ft 519 kts 80°
2026-04-28 08:37 56.44183 -36.55473 39027 ft 519 kts 80°
2026-04-28 08:38 56.45623 -36.42666 39024 ft 519 kts 81°
2026-04-28 08:38 56.47040 -36.29940 39025 ft 520 kts 81°
2026-04-28 08:39 56.48455 -36.17093 39022 ft 520 kts 81°
2026-04-28 08:39 56.49860 -36.04222 39025 ft 520 kts 81°
2026-04-28 08:40 56.51248 -35.91365 39022 ft 520 kts 81°
2026-04-28 08:40 56.52616 -35.78565 39018 ft 520 kts 81°
2026-04-28 08:41 56.53979 -35.65682 39022 ft 520 kts 81°
2026-04-28 08:41 56.55327 -35.52803 39019 ft 520 kts 81°
2026-04-28 08:42 56.56666 -35.39876 39016 ft 520 kts 82°
2026-04-28 08:42 56.57984 -35.27003 39014 ft 519 kts 82°
2026-04-28 08:43 56.59282 -35.14195 39021 ft 519 kts 82°
2026-04-28 08:43 56.60576 -35.01294 39015 ft 518 kts 82°
2026-04-28 08:44 56.61852 -34.88424 39012 ft 517 kts 82°
2026-04-28 08:44 56.63111 -34.75585 39012 ft 516 kts 83°
2026-04-28 08:45 56.64348 -34.62821 39010 ft 515 kts 83°
2026-04-28 08:45 56.65577 -34.50001 39011 ft 514 kts 83°
2026-04-28 08:46 56.66793 -34.37176 39010 ft 514 kts 83°
2026-04-28 08:46 56.67993 -34.24359 39011 ft 513 kts 83°
2026-04-28 08:47 56.69180 -34.11543 39010 ft 513 kts 84°
2026-04-28 08:47 56.70351 -33.98743 39007 ft 513 kts 84°
2026-04-28 08:48 56.71503 -33.86002 39008 ft 513 kts 84°
2026-04-28 08:48 56.72651 -33.73158 39007 ft 514 kts 84°
2026-04-28 08:49 56.73786 -33.60296 39008 ft 514 kts 84°
2026-04-28 08:49 56.74910 -33.47406 39010 ft 514 kts 84°
2026-04-28 08:50 56.76019 -33.34529 39009 ft 515 kts 85°
2026-04-28 08:50 56.77117 -33.21620 39006 ft 515 kts 85°
2026-04-28 08:51 56.78197 -33.08756 39006 ft 515 kts 85°
2026-04-28 08:51 56.79268 -32.95828 39009 ft 516 kts 85°
2026-04-28 08:52 56.80329 -32.82856 39008 ft 516 kts 85°
2026-04-28 08:52 56.81375 -32.69901 39004 ft 516 kts 85°
2026-04-28 08:53 56.82409 -32.56918 39006 ft 516 kts 85°
2026-04-28 08:53 56.83422 -32.44024 39005 ft 516 kts 86°
2026-04-28 08:54 56.84427 -32.31043 39006 ft 516 kts 86°
2026-04-28 08:54 56.85421 -32.18039 39004 ft 516 kts 86°
2026-04-28 08:55 56.86399 -32.05042 39002 ft 516 kts 86°
2026-04-28 08:55 56.87364 -31.92044 38998 ft 516 kts 86°
2026-04-28 08:56 56.88316 -31.79040 39002 ft 516 kts 86°
2026-04-28 08:56 56.89255 -31.66015 39006 ft 516 kts 86°
2026-04-28 08:57 56.90181 -31.52975 39012 ft 516 kts 86°
2026-04-28 08:57 56.91086 -31.40022 39013 ft 516 kts 87°
2026-04-28 08:58 56.91985 -31.26967 39003 ft 516 kts 87°
2026-04-28 08:58 56.92869 -31.13939 39007 ft 516 kts 87°
2026-04-28 08:59 56.93739 -31.00891 39007 ft 516 kts 87°
2026-04-28 08:59 56.94597 -30.87826 39006 ft 516 kts 87°
2026-04-28 09:00 56.95434 -30.74859 39005 ft 515 kts 88°
2026-04-28 09:00 56.96263 -30.61811 39006 ft 515 kts 88°
2026-04-28 09:01 56.97077 -30.48773 39005 ft 515 kts 88°
2026-04-28 09:01 56.97862 -30.35981 39010 ft 514 kts 88°
2026-04-28 09:02 56.98264 -30.29354 39013 ft 514 kts 88°
2026-04-28 09:02 56.99001 -30.17036 39007 ft 514 kts 88°
2026-04-28 09:03 56.99769 -30.04012 39005 ft 513 kts 88°
2026-04-28 09:03 57.00439 -29.90997 39012 ft 511 kts 90°
2026-04-28 09:04 57.00917 -29.77980 39005 ft 511 kts 91°
2026-04-28 09:04 57.01360 -29.65062 39009 ft 510 kts 91°
2026-04-28 09:05 57.01819 -29.52028 39008 ft 510 kts 91°
2026-04-28 09:05 57.02281 -29.39032 39011 ft 510 kts 91°
2026-04-28 09:06 57.02733 -29.26036 39009 ft 510 kts 91°
2026-04-28 09:06 57.03170 -29.13033 39010 ft 509 kts 91°
2026-04-28 09:07 57.03591 -29.00065 39009 ft 509 kts 92°
2026-04-28 09:07 57.03998 -28.87089 39012 ft 509 kts 92°
2026-04-28 09:08 57.04390 -28.74197 39009 ft 508 kts 92°
2026-04-28 09:08 57.04770 -28.61231 39008 ft 508 kts 92°
2026-04-28 09:09 57.05079 -28.50360 39013 ft 508 kts 92°
2026-04-28 09:09 57.05432 -28.37484 39014 ft 507 kts 93°
2026-04-28 09:10 57.05774 -28.24508 39017 ft 507 kts 93°
2026-04-28 09:10 57.06102 -28.11568 39015 ft 506 kts 93°
2026-04-28 09:11 57.06415 -27.98714 39015 ft 506 kts 93°
2026-04-28 09:11 57.06716 -27.85787 39016 ft 506 kts 94°
2026-04-28 09:12 57.07004 -27.72875 39019 ft 505 kts 94°
2026-04-28 09:12 57.07278 -27.59964 39028 ft 505 kts 94°
2026-04-28 09:13 57.07538 -27.47041 39015 ft 505 kts 94°
2026-04-28 09:13 57.07786 -27.34141 39019 ft 505 kts 94°
2026-04-28 09:14 57.08019 -27.21279 39018 ft 505 kts 95°
2026-04-28 09:14 57.08240 -27.08358 39024 ft 505 kts 95°
2026-04-28 09:15 57.08448 -26.95430 39022 ft 506 kts 95°
2026-04-28 09:15 57.08641 -26.82551 39022 ft 506 kts 95°
2026-04-28 09:16 57.08823 -26.69596 39021 ft 506 kts 95°
2026-04-28 09:16 57.08991 -26.56640 39022 ft 506 kts 95°
2026-04-28 09:17 57.09146 -26.43700 39023 ft 506 kts 96°
2026-04-28 09:17 57.09287 -26.30835 39022 ft 505 kts 96°
2026-04-28 09:18 57.09416 -26.17893 39020 ft 504 kts 96°
2026-04-28 09:18 57.09531 -26.04994 39017 ft 503 kts 96°
2026-04-28 09:19 57.09632 -25.92150 39018 ft 502 kts 96°
2026-04-28 09:19 57.09719 -25.79400 39024 ft 500 kts 96°
2026-04-28 09:20 57.09793 -25.66608 39024 ft 499 kts 97°
2026-04-28 09:20 57.09854 -25.53835 39026 ft 498 kts 97°
2026-04-28 09:21 57.09902 -25.41092 39027 ft 498 kts 97°
2026-04-28 09:21 57.09937 -25.28346 39025 ft 498 kts 97°
2026-04-28 09:22 57.09959 -25.15680 39029 ft 498 kts 97°
2026-04-28 09:22 57.09968 -25.02952 39032 ft 497 kts 97°
2026-04-28 09:23 57.09965 -24.90224 39028 ft 497 kts 97°
2026-04-28 09:23 57.09948 -24.77493 39047 ft 497 kts 97°
2026-04-28 09:24 57.09919 -24.64783 39043 ft 497 kts 97°
2026-04-28 09:24 57.09877 -24.52041 39048 ft 497 kts 98°
2026-04-28 09:25 57.09822 -24.39314 39040 ft 497 kts 98°
2026-04-28 09:25 57.09754 -24.26604 39051 ft 497 kts 98°
2026-04-28 09:26 57.09673 -24.13958 39051 ft 497 kts 98°
2026-04-28 09:26 57.09580 -24.01243 39057 ft 497 kts 98°
2026-04-28 09:27 57.09415 -23.82149 39060 ft 497 kts 98°
2026-04-28 09:27 57.09290 -23.69440 39073 ft 497 kts 98°
2026-04-28 09:28 57.09151 -23.56727 39081 ft 497 kts 98°
2026-04-28 09:28 57.08999 -23.44014 39086 ft 497 kts 98°
2026-04-28 09:29 57.08835 -23.31351 39087 ft 498 kts 99°
2026-04-28 09:29 57.08658 -23.18627 39089 ft 498 kts 99°
2026-04-28 09:30 57.08468 -23.05914 39092 ft 497 kts 99°
2026-04-28 09:30 57.08266 -22.93219 39098 ft 497 kts 99°
2026-04-28 09:31 57.08049 -22.80483 39109 ft 497 kts 99°
2026-04-28 09:31 57.07821 -22.67787 39106 ft 497 kts 99°
2026-04-28 09:32 57.07582 -22.55181 39115 ft 496 kts 99°
2026-04-28 09:32 57.07328 -22.42508 39119 ft 496 kts 99°
2026-04-28 09:33 57.07062 -22.29856 39123 ft 495 kts 99°
2026-04-28 09:33 57.06783 -22.17194 39126 ft 495 kts 99°
2026-04-28 09:34 57.06492 -22.04566 39129 ft 495 kts 99°
2026-04-28 09:34 57.06189 -21.92003 39138 ft 494 kts 99°
2026-04-28 09:35 57.05873 -21.79389 39145 ft 494 kts 99°
2026-04-28 09:35 57.05544 -21.66776 39147 ft 494 kts 99°
2026-04-28 09:36 57.05203 -21.54169 39155 ft 494 kts 99°
2026-04-28 09:36 57.04849 -21.41561 39164 ft 493 kts 99°
2026-04-28 09:37 57.04483 -21.28971 39163 ft 493 kts 99°
2026-04-28 09:37 57.04107 -21.16477 39164 ft 492 kts 99°
2026-04-28 09:38 57.03717 -21.03929 39168 ft 491 kts 99°
2026-04-28 09:38 57.03315 -20.91416 39174 ft 490 kts 99°
2026-04-28 09:39 57.02901 -20.78912 39185 ft 489 kts 99°
2026-04-28 09:39 57.02477 -20.66461 39189 ft 489 kts 99°
2026-04-28 09:40 57.02040 -20.54035 39198 ft 488 kts 99°
2026-04-28 09:40 57.01591 -20.41594 39203 ft 486 kts 99°
2026-04-28 09:41 57.01132 -20.29205 39206 ft 486 kts 100°
2026-04-28 09:41 57.00663 -20.16865 39211 ft 485 kts 100°
2026-04-28 09:42 57.00163 -20.04628 39218 ft 482 kts 102°
2026-04-28 09:42 56.98821 -19.92729 39218 ft 471 kts 114°
2026-04-28 09:43 56.96773 -19.81334 39225 ft 470 kts 114°
2026-04-28 09:43 56.94700 -19.69945 39233 ft 471 kts 114°
2026-04-28 09:44 56.92645 -19.58557 39239 ft 471 kts 114°
2026-04-28 09:44 56.90595 -19.47155 39241 ft 471 kts 114°
2026-04-28 09:45 56.88534 -19.35743 39247 ft 472 kts 114°
2026-04-28 09:45 56.86476 -19.24418 39250 ft 472 kts 114°
2026-04-28 09:46 56.84398 -19.13056 39258 ft 472 kts 114°
2026-04-28 09:46 56.82307 -19.01695 39261 ft 472 kts 114°
2026-04-28 09:47 56.80204 -18.90339 39268 ft 472 kts 114°
2026-04-28 09:47 56.78093 -18.79007 39272 ft 471 kts 114°
2026-04-28 09:48 56.75984 -18.67755 39275 ft 471 kts 114°
2026-04-28 09:48 56.73853 -18.56455 39278 ft 471 kts 114°
2026-04-28 09:49 56.71716 -18.45185 39284 ft 471 kts 114°
2026-04-28 09:49 56.69566 -18.33912 39289 ft 471 kts 114°
2026-04-28 09:50 56.67409 -18.22671 39299 ft 471 kts 114°
2026-04-28 09:50 56.65238 -18.11426 39298 ft 471 kts 114°
2026-04-28 09:51 56.63074 -18.00276 39302 ft 471 kts 114°
2026-04-28 09:51 56.60885 -17.89065 39306 ft 471 kts 114°
2026-04-28 09:52 56.58682 -17.77849 39310 ft 471 kts 114°
2026-04-28 09:52 56.56472 -17.66657 39315 ft 471 kts 114°
2026-04-28 09:53 56.54246 -17.55454 39321 ft 471 kts 114°
2026-04-28 09:53 56.52017 -17.44292 39329 ft 471 kts 113°
2026-04-28 09:54 56.49775 -17.33136 39328 ft 472 kts 113°
2026-04-28 09:54 56.47533 -17.22036 39337 ft 472 kts 113°
2026-04-28 09:55 56.45257 -17.10837 39340 ft 473 kts 113°
2026-04-28 09:55 56.42989 -16.99733 39340 ft 474 kts 113°
2026-04-28 09:56 56.40691 -16.88549 39347 ft 475 kts 113°
2026-04-28 09:56 56.38773 -16.79260 39350 ft 476 kts 113°
2026-04-28 09:57 56.36449 -16.68063 39363 ft 476 kts 113°
2026-04-28 09:57 56.34113 -16.56869 39366 ft 477 kts 113°
2026-04-28 09:58 56.31763 -16.45669 39368 ft 478 kts 113°
2026-04-28 09:58 56.29399 -16.34469 39370 ft 478 kts 113°
2026-04-28 09:59 56.27025 -16.23277 39378 ft 478 kts 113°
2026-04-28 09:59 56.24639 -16.12097 39378 ft 478 kts 113°
2026-04-28 10:00 56.22243 -16.00929 39386 ft 478 kts 113°
2026-04-28 10:00 56.19836 -15.89764 39389 ft 478 kts 113°
2026-04-28 10:01 56.17439 -15.78714 39393 ft 478 kts 113°
2026-04-28 10:01 56.15016 -15.67600 39397 ft 477 kts 113°
2026-04-28 10:02 56.12592 -15.56541 39400 ft 476 kts 113°
2026-04-28 10:02 56.10162 -15.45510 39404 ft 475 kts 114°
2026-04-28 10:03 56.07723 -15.34500 39410 ft 475 kts 114°
2026-04-28 10:03 56.05280 -15.23531 39407 ft 474 kts 114°
2026-04-28 10:04 56.02847 -15.12647 39417 ft 474 kts 114°
2026-04-28 10:04 56.00723 -15.01490 39427 ft 476 kts 104°
2026-04-28 10:05 55.99915 -14.89716 39418 ft 479 kts 92°
2026-04-28 10:05 55.99973 -14.77800 39425 ft 479 kts 90°
2026-04-28 10:06 56.00063 -14.65952 39424 ft 479 kts 91°
2026-04-28 10:06 56.00096 -14.54060 39426 ft 478 kts 91°
2026-04-28 10:07 56.00094 -14.42169 39427 ft 477 kts 91°
2026-04-28 10:07 56.00080 -14.30317 39430 ft 477 kts 91°
2026-04-28 10:08 56.00058 -14.18458 39433 ft 477 kts 91°
2026-04-28 10:08 56.00029 -14.06609 39434 ft 477 kts 91°
2026-04-28 10:09 56.00676 -13.94799 39436 ft 479 kts 79°
2026-04-28 10:09 56.02265 -13.83305 39446 ft 480 kts 76°
2026-04-28 10:10 56.03956 -13.71745 39439 ft 480 kts 76°
2026-04-28 10:10 56.05611 -13.60159 39443 ft 480 kts 77°
2026-04-28 10:11 56.07230 -13.48551 39440 ft 481 kts 77°
2026-04-28 10:11 56.08832 -13.36910 39444 ft 481 kts 77°
2026-04-28 10:12 56.10412 -13.25329 39448 ft 481 kts 77°
2026-04-28 10:12 56.11992 -13.13677 39451 ft 480 kts 77°
2026-04-28 10:13 56.13560 -13.02031 39450 ft 480 kts 77°
2026-04-28 10:13 56.15115 -12.90385 39450 ft 479 kts 77°
2026-04-28 10:14 56.16644 -12.78846 39451 ft 478 kts 77°
2026-04-28 10:14 56.18172 -12.67219 39459 ft 478 kts 77°
2026-04-28 10:15 56.19691 -12.55568 39457 ft 478 kts 77°
2026-04-28 10:15 56.21197 -12.43928 39455 ft 477 kts 77°
2026-04-28 10:16 56.22688 -12.32315 39458 ft 477 kts 77°
2026-04-28 10:16 56.24167 -12.20693 39463 ft 476 kts 77°
2026-04-28 10:17 56.25620 -12.09187 39461 ft 474 kts 77°
2026-04-28 10:17 56.27072 -11.97588 39465 ft 473 kts 77°
2026-04-28 10:18 56.28505 -11.86056 39460 ft 472 kts 77°
2026-04-28 10:18 56.29928 -11.74506 39464 ft 471 kts 77°
2026-04-28 10:19 56.31334 -11.62991 39467 ft 470 kts 77°
2026-04-28 10:19 56.32724 -11.51516 39470 ft 469 kts 77°
2026-04-28 10:20 56.34096 -11.40097 39466 ft 468 kts 77°
2026-04-28 10:20 56.35463 -11.28627 39472 ft 467 kts 77°
2026-04-28 10:21 56.36818 -11.17155 39468 ft 467 kts 77°
2026-04-28 10:21 56.38160 -11.05697 39475 ft 467 kts 77°
2026-04-28 10:22 56.39492 -10.94224 39471 ft 466 kts 77°
2026-04-28 10:22 56.40812 -10.82764 39474 ft 466 kts 77°
2026-04-28 10:23 56.42114 -10.71354 39471 ft 466 kts 77°
2026-04-28 10:23 56.43414 -10.59856 39476 ft 467 kts 77°
2026-04-28 10:24 56.44703 -10.48361 39475 ft 467 kts 77°
2026-04-28 10:24 56.45983 -10.36841 39478 ft 467 kts 77°
2026-04-28 10:25 56.47254 -10.25306 39477 ft 467 kts 77°
2026-04-28 10:25 56.48513 -10.13783 39483 ft 467 kts 77°
2026-04-28 10:26 56.49478 -10.02176 39484 ft 468 kts 86°
2026-04-28 10:26 56.49215 -9.90394 39482 ft 470 kts 97°
2026-04-28 10:27 56.48154 -9.78711 39478 ft 470 kts 98°
2026-04-28 10:27 56.47033 -9.67118 39483 ft 471 kts 98°
2026-04-28 10:28 56.45922 -9.55448 39483 ft 471 kts 98°
2026-04-28 10:29 56.44273 -9.37916 39487 ft 471 kts 97°
2026-04-28 10:29 56.43167 -9.26245 39481 ft 471 kts 98°
2026-04-28 10:30 56.42048 -9.14581 39481 ft 471 kts 98°
2026-04-28 10:30 56.40917 -9.02916 39487 ft 472 kts 98°
2026-04-28 10:31 56.39773 -8.91243 39479 ft 472 kts 98°
2026-04-28 10:31 56.38627 -8.79657 39488 ft 472 kts 98°
2026-04-28 10:32 56.37460 -8.67990 39483 ft 472 kts 98°
2026-04-28 10:32 56.36282 -8.56316 39482 ft 473 kts 98°
2026-04-28 10:33 56.35089 -8.44625 39484 ft 473 kts 98°
2026-04-28 10:33 56.33888 -8.32957 39483 ft 474 kts 98°
2026-04-28 10:34 56.32672 -8.21261 39486 ft 475 kts 98°
2026-04-28 10:34 56.31444 -8.09567 39483 ft 475 kts 98°
2026-04-28 10:35 56.30212 -7.97948 39482 ft 476 kts 98°
2026-04-28 10:35 56.28960 -7.86248 39482 ft 476 kts 98°
2026-04-28 10:36 56.27694 -7.74527 39482 ft 477 kts 98°
2026-04-28 10:36 56.26415 -7.62796 39481 ft 477 kts 98°
2026-04-28 10:37 56.25123 -7.51059 39488 ft 478 kts 98°
2026-04-28 10:37 56.23820 -7.39328 39484 ft 479 kts 98°
2026-04-28 10:38 56.22513 -7.27668 39487 ft 480 kts 98°
2026-04-28 10:38 56.21182 -7.15902 39486 ft 480 kts 98°
2026-04-28 10:39 56.19836 -7.04116 39488 ft 481 kts 98°
2026-04-28 10:39 56.18477 -6.92317 39488 ft 482 kts 98°
2026-04-28 10:40 56.17107 -6.80528 39492 ft 483 kts 98°
2026-04-28 10:40 56.15732 -6.68796 39487 ft 484 kts 98°
2026-04-28 10:41 56.14334 -6.56979 39493 ft 484 kts 98°
2026-04-28 10:41 56.13630 -6.51065 39309 ft 482 kts 99°
2026-04-28 10:41 56.12940 -6.45303 39376 ft 464 kts 99°
2026-04-28 10:41 56.12267 -6.39743 39403 ft 447 kts 99°
2026-04-28 10:42 56.11616 -6.34371 39429 ft 439 kts 99°
2026-04-28 10:42 56.10535 -6.25419 39488 ft 445 kts 99°
2026-04-28 10:43 56.09208 -6.14500 39498 ft 452 kts 99°
2026-04-28 10:43 56.07849 -6.03439 39496 ft 455 kts 99°
2026-04-28 10:44 56.06473 -5.92353 39495 ft 456 kts 99°
2026-04-28 10:44 56.05098 -5.81362 39496 ft 455 kts 99°
2026-04-28 10:45 56.03705 -5.70321 39485 ft 453 kts 99°
2026-04-28 10:45 56.02313 -5.59356 39485 ft 449 kts 99°
2026-04-28 10:46 56.00923 -5.48497 39491 ft 447 kts 99°
2026-04-28 10:46 55.99536 -5.37732 39484 ft 447 kts 99°
2026-04-28 10:47 55.98134 -5.26932 39491 ft 446 kts 99°
2026-04-28 10:47 55.96720 -5.16127 39491 ft 447 kts 99°
2026-04-28 10:48 55.95299 -5.05338 39500 ft 448 kts 99°
2026-04-28 10:48 55.93861 -4.94507 39505 ft 448 kts 99°
2026-04-28 10:49 55.92413 -4.83686 39500 ft 448 kts 99°
2026-04-28 10:49 55.90961 -4.72903 39503 ft 447 kts 99°
2026-04-28 10:50 55.89504 -4.62157 39509 ft 447 kts 99°
2026-04-28 10:50 55.88027 -4.51398 39500 ft 447 kts 101°
2026-04-28 10:51 55.85824 -4.40989 39520 ft 452 kts 111°
2026-04-28 10:51 55.82707 -4.31208 39524 ft 456 kts 116°
2026-04-28 10:52 55.79414 -4.21556 39501 ft 456 kts 116°
2026-04-28 10:52 55.76154 -4.11967 39500 ft 455 kts 116°
2026-04-28 10:53 55.72893 -4.02330 39498 ft 455 kts 115°
2026-04-28 10:53 55.69626 -3.92690 39485 ft 455 kts 115°
2026-04-28 10:54 55.66353 -3.83073 39482 ft 455 kts 116°
2026-04-28 10:54 55.63100 -3.73553 39487 ft 455 kts 116°
2026-04-28 10:55 55.59815 -3.63979 39484 ft 454 kts 116°
2026-04-28 10:55 55.56526 -3.54431 39483 ft 454 kts 116°
2026-04-28 10:56 55.53237 -3.44911 39484 ft 454 kts 116°
2026-04-28 10:56 55.49794 -3.35545 39478 ft 458 kts 121°
2026-04-28 10:57 55.45492 -3.27120 39483 ft 464 kts 128°
2026-04-28 10:57 55.40962 -3.19071 39477 ft 465 kts 128°
2026-04-28 10:58 55.36412 -3.10979 39470 ft 465 kts 128°
2026-04-28 10:58 55.31886 -3.02894 39474 ft 464 kts 128°
2026-04-28 10:59 55.27354 -2.94799 39468 ft 464 kts 128°
2026-04-28 10:59 55.22846 -2.86772 39466 ft 464 kts 128°
2026-04-28 11:00 55.18306 -2.78717 39459 ft 464 kts 128°
2026-04-28 11:00 55.13753 -2.70670 39459 ft 464 kts 128°
2026-04-28 11:01 55.09221 -2.62688 39461 ft 464 kts 128°
2026-04-28 11:01 55.04659 -2.54679 39459 ft 465 kts 128°
2026-04-28 11:02 55.00095 -2.46695 39462 ft 465 kts 128°
2026-04-28 11:02 54.95525 -2.38729 39460 ft 465 kts 128°
2026-04-28 11:03 54.90940 -2.30762 39462 ft 465 kts 129°
2026-04-28 11:03 54.86365 -2.22839 39449 ft 466 kts 129°
2026-04-28 11:04 54.81773 -2.14915 39472 ft 466 kts 129°
2026-04-28 11:04 54.77167 -2.06994 39467 ft 466 kts 129°
2026-04-28 11:05 54.72581 -1.99133 39477 ft 467 kts 129°
2026-04-28 11:05 54.67947 -1.91217 39472 ft 467 kts 129°
2026-04-28 11:06 54.63312 -1.83326 39480 ft 467 kts 129°
2026-04-28 11:06 54.58674 -1.75458 39482 ft 468 kts 129°
2026-04-28 11:07 54.54026 -1.67597 39485 ft 468 kts 129°
2026-04-28 11:07 54.49392 -1.59786 39488 ft 468 kts 129°
2026-04-28 11:08 54.44730 -1.51956 39488 ft 469 kts 130°
2026-04-28 11:08 54.40053 -1.44128 39482 ft 469 kts 130°
2026-04-28 11:09 54.35373 -1.36318 39485 ft 470 kts 130°
2026-04-28 11:09 54.30701 -1.28549 39479 ft 470 kts 130°
2026-04-28 11:10 54.25994 -1.20749 39484 ft 471 kts 130°
2026-04-28 11:10 54.21286 -1.12971 39481 ft 472 kts 130°
2026-04-28 11:11 54.16559 -1.05188 39483 ft 472 kts 130°
2026-04-28 11:11 54.11821 -0.97413 39455 ft 472 kts 130°
2026-04-28 11:12 54.07116 -0.89713 39450 ft 472 kts 131°
2026-04-28 11:12 54.02267 -0.82110 39449 ft 476 kts 136°
2026-04-28 11:13 53.96827 -0.75589 39448 ft 479 kts 141°
2026-04-28 11:13 53.91316 -0.69257 39450 ft 480 kts 140°
2026-04-28 11:14 53.85804 -0.62858 39445 ft 480 kts 140°
2026-04-28 11:14 53.80296 -0.56435 39454 ft 480 kts 140°
2026-04-28 11:15 53.74776 -0.50017 39454 ft 481 kts 140°
2026-04-28 11:15 53.69200 -0.43558 39468 ft 492 kts 146°
2026-04-28 11:16 53.63505 -0.37037 39466 ft 501 kts 146°
2026-04-28 11:16 53.57994 -0.29765 39462 ft 506 kts 136°
2026-04-28 11:17 53.53306 -0.20919 39457 ft 507 kts 127°
2026-04-28 11:17 53.49092 -0.11386 39449 ft 508 kts 126°
2026-04-28 11:18 53.44889 -0.01899 39437 ft 505 kts 126°
2026-04-28 11:18 53.40674 0.07457 39427 ft 503 kts 127°
2026-04-28 11:19 53.36446 0.16764 39420 ft 500 kts 127°
2026-04-28 11:19 53.32228 0.26023 39422 ft 499 kts 127°
2026-04-28 11:20 53.28020 0.35236 39420 ft 498 kts 127°
2026-04-28 11:20 53.23806 0.44426 39418 ft 498 kts 127°
2026-04-28 11:21 53.19600 0.53541 39415 ft 498 kts 127°
2026-04-28 11:21 53.15364 0.62691 39407 ft 498 kts 127°
2026-04-28 11:22 53.11125 0.71818 39409 ft 498 kts 127°
2026-04-28 11:22 53.06879 0.80932 39406 ft 498 kts 127°
2026-04-28 11:23 53.02633 0.90017 39400 ft 497 kts 127°
2026-04-28 11:23 52.98622 0.99347 39400 ft 496 kts 120°
2026-04-28 11:24 52.95642 1.09576 39386 ft 494 kts 110°
2026-04-28 11:24 52.93257 1.20263 39391 ft 494 kts 109°
2026-04-28 11:25 52.90875 1.30985 39379 ft 494 kts 109°
2026-04-28 11:25 52.88458 1.41650 39380 ft 494 kts 110°
2026-04-28 11:26 52.86030 1.52216 39378 ft 494 kts 110°
2026-04-28 11:26 52.83571 1.62849 39377 ft 493 kts 110°
2026-04-28 11:27 52.81112 1.73438 39371 ft 493 kts 110°
2026-04-28 11:27 52.78644 1.84020 39367 ft 493 kts 110°
2026-04-28 11:28 52.76166 1.94597 39367 ft 493 kts 110°
2026-04-28 11:28 52.73689 2.05112 39358 ft 493 kts 111°
2026-04-28 11:29 52.71195 2.15651 39355 ft 493 kts 111°
2026-04-28 11:29 52.68687 2.26196 39348 ft 493 kts 111°
2026-04-28 11:30 52.66177 2.36699 39349 ft 493 kts 111°
2026-04-28 11:30 52.64078 2.45442 39647 ft 493 kts 111°
2026-04-28 11:30 52.62813 2.50693 39869 ft 492 kts 111°
2026-04-28 11:31 52.61548 2.55938 40054 ft 492 kts 111°
2026-04-28 11:31 52.60282 2.61170 40237 ft 492 kts 111°
2026-04-28 11:31 52.59013 2.66403 40443 ft 492 kts 111°
2026-04-28 11:31 52.57323 2.73357 40696 ft 492 kts 111°
2026-04-28 11:32 52.56481 2.76814 40836 ft 491 kts 111°
2026-04-28 11:32 52.55214 2.82027 41031 ft 491 kts 110°
2026-04-28 11:32 52.54121 2.87331 41193 ft 490 kts 104°
2026-04-28 11:32 52.53252 2.92760 41243 ft 491 kts 103°
2026-04-28 11:33 52.51609 3.03651 41320 ft 491 kts 103°
2026-04-28 11:33 52.49951 3.14577 41317 ft 493 kts 103°
2026-04-28 11:34 52.48250 3.25500 41311 ft 495 kts 103°
2026-04-28 11:34 52.46528 3.36380 41303 ft 496 kts 103°
2026-04-28 11:35 52.44779 3.47338 41300 ft 497 kts 104°
2026-04-28 11:35 52.43023 3.58281 41300 ft 496 kts 104°
2026-04-28 11:36 52.41260 3.69204 41298 ft 495 kts 104°
2026-04-28 11:36 52.39492 3.80090 41296 ft 493 kts 104°
2026-04-28 11:37 52.37731 3.90857 41299 ft 491 kts 104°
2026-04-28 11:37 52.35956 4.01651 41298 ft 490 kts 104°
2026-04-28 11:38 52.34175 4.12404 41292 ft 489 kts 104°
2026-04-28 11:38 52.32387 4.23136 41292 ft 489 kts 104°
2026-04-28 11:39 52.30592 4.33846 41279 ft 489 kts 104°
2026-04-28 11:39 52.28784 4.44563 41277 ft 489 kts 104°
2026-04-28 11:40 52.26968 4.55264 41261 ft 489 kts 104°
2026-04-28 11:40 52.25139 4.65971 41264 ft 490 kts 104°
2026-04-28 11:41 52.23311 4.76612 41263 ft 491 kts 105°
2026-04-28 11:41 52.21459 4.87329 41274 ft 491 kts 105°
2026-04-28 11:42 52.19594 4.98045 41277 ft 484 kts 104°
2026-04-28 11:42 52.17769 5.08465 41259 ft 473 kts 104°
2026-04-28 11:43 52.15950 5.18808 41271 ft 475 kts 104°
2026-04-28 11:43 52.14118 5.29173 41270 ft 478 kts 104°
2026-04-28 11:44 52.12273 5.39534 41263 ft 480 kts 104°
2026-04-28 11:44 52.10399 5.50007 41265 ft 482 kts 105°
2026-04-28 11:45 52.08512 5.60485 41265 ft 484 kts 104°
2026-04-28 11:45 52.06610 5.70983 41266 ft 485 kts 105°
2026-04-28 11:46 52.04700 5.81465 41267 ft 486 kts 105°
2026-04-28 11:46 52.02769 5.92006 41267 ft 487 kts 105°
2026-04-28 11:47 52.00830 6.02534 41267 ft 487 kts 105°
2026-04-28 11:47 51.98878 6.13083 41266 ft 487 kts 105°
2026-04-28 11:48 51.96559 6.23400 41266 ft 489 kts 115°
2026-04-28 11:48 51.92963 6.32797 41255 ft 492 kts 127°
2026-04-28 11:49 51.88621 6.41373 41254 ft 492 kts 129°
2026-04-28 11:49 51.87757 6.43043 41250 ft 492 kts 129°
2026-04-28 11:54 51.84472 6.49404 41252 ft 492 kts 128°
2026-04-28 11:55 51.80114 6.57924 41242 ft 490 kts 128°
2026-04-28 11:55 51.75797 6.66412 41245 ft 489 kts 128°
2026-04-28 11:56 51.71484 6.74876 41236 ft 484 kts 128°
2026-04-28 11:56 51.67231 6.83191 41242 ft 486 kts 129°
2026-04-28 11:57 51.62920 6.91591 41244 ft 487 kts 129°
2026-04-28 11:57 51.58593 6.99989 41230 ft 485 kts 129°
2026-04-28 11:58 51.54264 7.08367 41235 ft 486 kts 129°
2026-04-28 11:58 51.49942 7.16703 41239 ft 487 kts 129°
2026-04-28 11:59 51.45637 7.24979 41231 ft 487 kts 129°
2026-04-28 11:59 51.41267 7.33358 41238 ft 491 kts 129°
2026-04-28 12:00 51.37027 7.41858 41239 ft 487 kts 124°
2026-04-28 12:00 51.33635 7.51280 41242 ft 489 kts 117°
2026-04-28 12:01 51.30558 7.60815 41239 ft 487 kts 117°
2026-04-28 12:01 51.27410 7.70451 41208 ft 488 kts 117°
2026-04-28 12:02 51.24226 7.80050 41226 ft 489 kts 117°
2026-04-28 12:02 51.21022 7.89642 41204 ft 489 kts 117°
2026-04-28 12:03 51.17822 7.99198 41203 ft 490 kts 118°
2026-04-28 12:03 51.14621 8.08722 41213 ft 491 kts 118°
2026-04-28 12:04 51.11396 8.18291 41217 ft 492 kts 118°
2026-04-28 12:04 51.08059 8.27780 41218 ft 490 kts 121°
2026-04-28 12:05 51.04479 8.37050 41218 ft 493 kts 122°
2026-04-28 12:05 51.00869 8.46282 41206 ft 490 kts 122°
2026-04-28 12:06 50.97274 8.55519 41203 ft 493 kts 122°
2026-04-28 12:06 50.93683 8.64757 41227 ft 493 kts 122°
2026-04-28 12:07 50.90102 8.73938 41206 ft 492 kts 122°
2026-04-28 12:07 50.86493 8.83155 41204 ft 493 kts 122°
2026-04-28 12:08 50.82870 8.92376 41202 ft 493 kts 122°
2026-04-28 12:08 50.79233 9.01597 41220 ft 496 kts 122°
2026-04-28 12:09 50.75560 9.10884 41220 ft 500 kts 122°
2026-04-28 12:09 50.72083 9.20446 41217 ft 503 kts 115°
2026-04-28 12:10 50.69637 9.30799 41214 ft 505 kts 106°
2026-04-28 12:10 50.67660 9.41464 41195 ft 507 kts 105°
2026-04-28 12:11 50.65670 9.52144 41199 ft 507 kts 106°
2026-04-28 12:11 50.63648 9.62711 41199 ft 506 kts 106°
2026-04-28 12:12 50.61597 9.73285 41194 ft 504 kts 107°
2026-04-28 12:12 50.59541 9.83823 41197 ft 502 kts 107°
2026-04-28 12:13 50.57485 9.94317 41204 ft 500 kts 107°
2026-04-28 12:13 50.55437 10.04718 41201 ft 500 kts 107°
2026-04-28 12:14 50.53373 10.15146 41200 ft 500 kts 107°
2026-04-28 12:14 50.51296 10.25581 41204 ft 500 kts 107°
2026-04-28 12:15 50.49213 10.35996 41202 ft 501 kts 107°
2026-04-28 12:15 50.47113 10.46447 41204 ft 502 kts 107°
2026-04-28 12:16 50.45012 10.56900 41204 ft 502 kts 107°
2026-04-28 12:16 50.43264 10.65616 41200 ft 503 kts 107°
2026-04-28 12:17 50.41158 10.76080 41202 ft 504 kts 107°
2026-04-28 12:17 50.38691 10.88256 41207 ft 504 kts 107°
2026-04-28 12:18 50.36914 10.96973 41208 ft 505 kts 107°
2026-04-28 12:18 50.34766 11.07460 41205 ft 506 kts 107°
2026-04-28 12:19 50.32603 11.17957 41204 ft 506 kts 107°
2026-04-28 12:19 50.30434 11.28435 41202 ft 506 kts 107°
2026-04-28 12:20 50.28251 11.38924 41201 ft 507 kts 107°
2026-04-28 12:20 50.26072 11.49344 41206 ft 507 kts 108°
2026-04-28 12:21 50.23869 11.59821 41206 ft 507 kts 108°
2026-04-28 12:21 50.21657 11.70285 41209 ft 507 kts 108°
2026-04-28 12:22 50.19435 11.80741 41212 ft 507 kts 108°
2026-04-28 12:22 50.17219 11.91121 41213 ft 507 kts 108°
2026-04-28 12:23 50.14978 12.01563 41205 ft 508 kts 108°
2026-04-28 12:23 50.12725 12.12004 41205 ft 508 kts 108°
2026-04-28 12:24 50.10466 12.22423 41190 ft 508 kts 108°
2026-04-28 12:24 50.08194 12.32856 41192 ft 508 kts 108°
2026-04-28 12:25 50.05895 12.43291 41191 ft 509 kts 109°
2026-04-28 12:25 50.03376 12.53578 41194 ft 509 kts 111°
2026-04-28 12:26 50.00753 12.63834 41195 ft 510 kts 111°
2026-04-28 12:26 49.98147 12.74077 41199 ft 510 kts 111°
2026-04-28 12:27 49.95570 12.84285 41198 ft 511 kts 111°
2026-04-28 12:27 49.92974 12.94562 41193 ft 511 kts 111°
2026-04-28 12:28 49.90372 13.04817 41187 ft 511 kts 111°
2026-04-28 12:28 49.87755 13.15072 41187 ft 511 kts 111°
2026-04-28 12:29 49.83812 13.30433 41188 ft 512 kts 111°
2026-04-28 12:30 49.81173 13.40655 41186 ft 512 kts 111°
2026-04-28 12:30 49.78555 13.50751 41189 ft 512 kts 111°
2026-04-28 12:31 49.75889 13.60987 41181 ft 513 kts 111°
2026-04-28 12:31 49.73216 13.71203 41187 ft 513 kts 111°
2026-04-28 12:32 49.70522 13.81456 41184 ft 513 kts 111°
2026-04-28 12:32 49.67827 13.91664 41179 ft 514 kts 112°
2026-04-28 12:33 49.65156 14.01741 41184 ft 513 kts 112°
2026-04-28 12:33 49.62441 14.11934 41180 ft 514 kts 112°
2026-04-28 12:34 49.59717 14.22118 41181 ft 514 kts 112°
2026-04-28 12:34 49.56980 14.32308 41179 ft 514 kts 112°
2026-04-28 12:35 49.54229 14.42504 41189 ft 514 kts 112°
2026-04-28 12:35 49.51491 14.52605 41187 ft 515 kts 112°
2026-04-28 12:36 49.48721 14.62782 41170 ft 515 kts 112°
2026-04-28 12:36 49.45944 14.72940 41174 ft 515 kts 112°
2026-04-28 12:37 49.43158 14.83089 41173 ft 515 kts 112°
2026-04-28 12:37 49.40364 14.93223 41196 ft 515 kts 112°
2026-04-28 12:38 49.37572 15.03303 41176 ft 516 kts 112°
2026-04-28 12:38 49.34758 15.13419 41181 ft 516 kts 112°
2026-04-28 12:39 49.31931 15.23541 41183 ft 516 kts 112°
2026-04-28 12:39 49.29096 15.33649 41183 ft 516 kts 113°
2026-04-28 12:40 49.26270 15.43680 41184 ft 516 kts 113°
2026-04-28 12:40 49.23415 15.53774 41187 ft 516 kts 113°
2026-04-28 12:41 49.20553 15.63848 41186 ft 517 kts 113°
2026-04-28 12:41 49.17672 15.73946 41189 ft 517 kts 113°
2026-04-28 12:42 49.14790 15.84007 41190 ft 517 kts 113°
2026-04-28 12:42 49.11897 15.94062 41188 ft 517 kts 113°
2026-04-28 12:43 49.09012 16.04047 41183 ft 517 kts 113°
2026-04-28 12:43 49.06099 16.14091 41188 ft 517 kts 113°
2026-04-28 12:44 49.03177 16.24120 41186 ft 518 kts 114°
2026-04-28 12:44 49.00243 16.34151 41191 ft 518 kts 114°
2026-04-28 12:45 48.97302 16.44165 41187 ft 518 kts 114°
2026-04-28 12:45 48.94366 16.54120 41188 ft 518 kts 114°
2026-04-28 12:46 48.91406 16.64115 41190 ft 518 kts 114°
2026-04-28 12:46 48.88435 16.74107 41193 ft 518 kts 114°
2026-04-28 12:47 48.85452 16.84100 41183 ft 519 kts 114°
2026-04-28 12:47 48.82460 16.94087 41184 ft 519 kts 114°
2026-04-28 12:48 48.79380 17.03905 41181 ft 519 kts 120°
2026-04-28 12:48 48.75333 17.12946 41185 ft 518 kts 130°
2026-04-28 12:49 48.70495 17.21038 41172 ft 518 kts 134°
2026-04-28 12:49 48.65576 17.29000 41176 ft 518 kts 134°
2026-04-28 12:50 48.60664 17.37002 41165 ft 518 kts 134°
2026-04-28 12:50 48.55809 17.44959 41163 ft 519 kts 134°
2026-04-28 12:51 48.50906 17.52993 41162 ft 519 kts 134°
2026-04-28 12:51 48.46007 17.60992 41161 ft 519 kts 134°
2026-04-28 12:52 48.41104 17.68968 41163 ft 519 kts 134°
2026-04-28 12:52 48.36191 17.76933 41160 ft 519 kts 134°
2026-04-28 12:53 48.31276 17.84875 41158 ft 519 kts 134°
2026-04-28 12:53 48.26378 17.92770 41156 ft 519 kts 134°
2026-04-28 12:54 48.21445 18.00695 41152 ft 519 kts 134°
2026-04-28 12:54 48.16507 18.08606 41154 ft 520 kts 134°
2026-04-28 12:55 48.11557 18.16510 41152 ft 520 kts 134°
2026-04-28 12:55 48.06602 18.24400 41151 ft 520 kts 134°
2026-04-28 12:56 48.01637 18.32280 41149 ft 520 kts 134°
2026-04-28 12:56 47.96664 18.40150 41144 ft 521 kts 135°
2026-04-28 12:57 47.91685 18.48006 41142 ft 521 kts 135°
2026-04-28 12:57 47.86729 18.55804 41143 ft 521 kts 135°
2026-04-28 12:58 47.81742 18.63625 41143 ft 521 kts 135°
2026-04-28 12:58 47.76743 18.71442 41137 ft 521 kts 135°
2026-04-28 12:59 47.71739 18.79244 41138 ft 521 kts 135°
2026-04-28 12:59 47.66734 18.87025 41137 ft 521 kts 135°
2026-04-28 13:00 47.61719 18.94797 41145 ft 521 kts 135°
2026-04-28 13:00 47.56698 19.02556 41144 ft 521 kts 135°
2026-04-28 13:01 47.51678 19.10291 41153 ft 521 kts 135°
2026-04-28 13:01 47.46649 19.18017 41156 ft 521 kts 135°
2026-04-28 13:02 47.41605 19.25743 41170 ft 522 kts 135°
2026-04-28 13:02 47.36586 19.33408 41171 ft 522 kts 135°
2026-04-28 13:03 47.31536 19.41098 41143 ft 522 kts 135°
2026-04-28 13:03 47.26474 19.48784 41139 ft 522 kts 136°
2026-04-28 13:04 47.22262 19.55162 41146 ft 522 kts 136°
2026-04-28 13:04 47.17172 19.62851 41135 ft 523 kts 136°
2026-04-28 13:05 47.12116 19.70465 41149 ft 523 kts 136°
2026-04-28 13:05 47.07034 19.78101 41159 ft 523 kts 136°
2026-04-28 13:06 47.01786 19.85465 41160 ft 521 kts 140°
2026-04-28 13:06 46.96340 19.92496 41153 ft 521 kts 141°
2026-04-28 13:07 46.90883 19.99487 41153 ft 522 kts 141°
2026-04-28 13:07 46.85432 20.06504 41148 ft 522 kts 140°
2026-04-28 13:08 46.79991 20.13520 41144 ft 522 kts 140°
2026-04-28 13:08 46.74547 20.20527 41140 ft 522 kts 140°
2026-04-28 13:09 46.69096 20.27521 41140 ft 522 kts 141°
2026-04-28 13:09 46.63636 20.34503 41136 ft 522 kts 141°
2026-04-28 13:10 46.58211 20.41420 41140 ft 522 kts 141°
2026-04-28 13:10 46.52749 20.48366 41143 ft 522 kts 141°
2026-04-28 13:11 46.47277 20.55305 41138 ft 522 kts 141°
2026-04-28 13:11 46.41809 20.62220 41144 ft 522 kts 141°
2026-04-28 13:12 46.36335 20.69122 41141 ft 522 kts 141°
2026-04-28 13:12 46.30849 20.76022 41138 ft 521 kts 141°
2026-04-28 13:13 46.25374 20.82889 41141 ft 521 kts 141°
2026-04-28 13:13 46.19886 20.89752 41133 ft 521 kts 141°
2026-04-28 13:14 46.14429 20.96559 41136 ft 521 kts 141°
2026-04-28 13:14 46.08915 21.03419 41137 ft 520 kts 141°
2026-04-28 13:15 46.03460 21.10185 41132 ft 520 kts 141°
2026-04-28 13:15 45.97976 21.16970 41132 ft 520 kts 141°
2026-04-28 13:16 45.92487 21.23742 41131 ft 519 kts 141°
2026-04-28 13:16 45.87007 21.30485 41129 ft 519 kts 141°
2026-04-28 13:17 45.81514 21.37226 41127 ft 519 kts 142°
2026-04-28 13:17 45.76030 21.43938 41131 ft 518 kts 142°
2026-04-28 13:18 45.70530 21.50650 41125 ft 518 kts 142°
2026-04-28 13:18 45.65041 21.57333 41129 ft 518 kts 142°
2026-04-28 13:19 45.59582 21.63960 41126 ft 518 kts 142°
2026-04-28 13:19 45.54080 21.70623 41119 ft 518 kts 142°
2026-04-28 13:20 45.48573 21.77273 41114 ft 518 kts 142°
2026-04-28 13:20 45.43070 21.83902 41111 ft 517 kts 142°
2026-04-28 13:21 45.37572 21.90506 41111 ft 517 kts 142°
2026-04-28 13:21 45.32106 21.97056 41105 ft 516 kts 142°
2026-04-28 13:22 45.26606 22.03628 41094 ft 516 kts 142°
2026-04-28 13:22 45.21092 22.10200 41086 ft 516 kts 142°
2026-04-28 13:23 45.15594 22.16736 41105 ft 516 kts 142°
2026-04-28 13:23 45.10122 22.23223 41096 ft 515 kts 142°
2026-04-28 13:24 45.04621 22.29730 41089 ft 515 kts 142°
2026-04-28 13:24 44.99115 22.36224 41081 ft 515 kts 142°
2026-04-28 13:25 44.93603 22.42710 41080 ft 515 kts 142°
2026-04-28 13:25 44.88096 22.49173 41070 ft 515 kts 143°
2026-04-28 13:26 44.82580 22.55632 41073 ft 515 kts 142°
2026-04-28 13:26 44.77100 22.62038 41072 ft 515 kts 142°
2026-04-28 13:27 44.71665 22.68601 41072 ft 515 kts 141°
2026-04-28 13:27 44.66269 22.75222 41074 ft 515 kts 141°
2026-04-28 13:28 44.60854 22.81831 41073 ft 515 kts 141°
2026-04-28 13:28 44.55430 22.88404 41073 ft 515 kts 141°
2026-04-28 13:29 44.49996 22.94961 41076 ft 515 kts 141°
2026-04-28 13:29 44.44595 23.01463 41074 ft 515 kts 141°
2026-04-28 13:30 44.39152 23.08001 41077 ft 515 kts 141°
2026-04-28 13:30 44.33706 23.14527 41076 ft 515 kts 142°
2026-04-28 13:31 44.25538 23.24283 41079 ft 515 kts 142°
2026-04-28 13:31 44.20083 23.30779 41079 ft 515 kts 142°
2026-04-28 13:32 44.14665 23.37214 41079 ft 514 kts 142°
2026-04-28 13:32 44.09212 23.43673 41080 ft 514 kts 142°
2026-04-28 13:33 44.06482 23.46901 40956 ft 516 kts 142°
2026-04-28 13:33 44.03707 23.50177 40137 ft 524 kts 142°
2026-04-28 13:33 44.00932 23.53450 39529 ft 523 kts 142°
2026-04-28 13:33 43.98154 23.56724 38852 ft 523 kts 142°
2026-04-28 13:34 43.95372 23.59998 38032 ft 524 kts 141°
2026-04-28 13:34 43.92634 23.63217 37282 ft 523 kts 142°
2026-04-28 13:34 43.89863 23.66470 36561 ft 521 kts 141°
2026-04-28 13:34 43.87090 23.69722 35806 ft 521 kts 141°
2026-04-28 13:35 43.84314 23.72972 34953 ft 523 kts 141°
2026-04-28 13:35 43.81517 23.76214 34352 ft 520 kts 143°
2026-04-28 13:35 43.78620 23.79111 34203 ft 505 kts 149°
2026-04-28 13:35 43.75618 23.81632 33578 ft 508 kts 154°
2026-04-28 13:36 43.72464 23.83751 32919 ft 510 kts 159°
2026-04-28 13:36 43.69213 23.85706 32279 ft 507 kts 160°
2026-04-28 13:36 43.65983 23.87642 31640 ft 504 kts 159°
2026-04-28 13:36 43.62772 23.89580 31014 ft 501 kts 159°
2026-04-28 13:37 43.59592 23.91517 30405 ft 499 kts 159°
2026-04-28 13:37 43.56429 23.93456 29745 ft 496 kts 159°
2026-04-28 13:37 43.53282 23.95389 29068 ft 492 kts 159°
2026-04-28 13:37 43.50210 23.97276 28474 ft 487 kts 159°
2026-04-28 13:38 43.47128 23.99166 27884 ft 482 kts 159°
2026-04-28 13:38 43.44073 24.01035 27263 ft 478 kts 159°
2026-04-28 13:38 43.41047 24.02883 26671 ft 474 kts 159°
2026-04-28 13:38 43.38041 24.04718 26088 ft 474 kts 159°
2026-04-28 13:39 43.34991 24.06579 25496 ft 482 kts 158°
2026-04-28 13:39 43.31934 24.08447 24892 ft 478 kts 158°
2026-04-28 13:39 43.28940 24.10277 24295 ft 476 kts 158°
2026-04-28 13:39 43.25929 24.12116 23689 ft 472 kts 158°
2026-04-28 13:40 43.22924 24.13948 22996 ft 468 kts 158°
2026-04-28 13:40 43.19955 24.15755 22361 ft 463 kts 158°
2026-04-28 13:40 43.17031 24.17529 21794 ft 453 kts 159°
2026-04-28 13:40 43.14067 24.18692 21210 ft 438 kts 177°
2026-04-28 13:41 43.11086 24.18527 20695 ft 426 kts 195°
2026-04-28 13:41 43.08340 24.17285 20170 ft 415 kts 209°
2026-04-28 13:41 43.05862 24.15335 19667 ft 408 kts 219°
2026-04-28 13:41 43.03822 24.12741 19144 ft 394 kts 234°
2026-04-28 13:42 43.02116 24.09787 18676 ft 399 kts 236°
2026-04-28 13:42 43.00404 24.06773 18126 ft 400 kts 235°
2026-04-28 13:42 42.98696 24.03791 17582 ft 397 kts 235°
2026-04-28 13:42 42.96985 24.00841 17038 ft 394 kts 234°
2026-04-28 13:43 42.95282 23.97931 16550 ft 390 kts 234°
2026-04-28 13:43 42.93687 23.95225 16091 ft 387 kts 234°
2026-04-28 13:43 42.92003 23.92376 15599 ft 384 kts 234°
2026-04-28 13:43 42.90349 23.89582 15138 ft 382 kts 234°
2026-04-28 13:44 42.88686 23.86774 14666 ft 379 kts 234°
2026-04-28 13:44 42.87027 23.83979 14193 ft 377 kts 233°
2026-04-28 13:44 42.85337 23.81295 13682 ft 370 kts 225°
2026-04-28 13:44 42.83178 23.79386 13185 ft 374 kts 206°
2026-04-28 13:45 42.80657 23.78473 12762 ft 378 kts 186°
2026-04-28 13:45 42.78098 23.79002 12629 ft 370 kts 159°
2026-04-28 13:45 42.76040 23.80969 12526 ft 359 kts 131°
2026-04-28 13:45 42.74894 23.83891 12431 ft 346 kts 103°
2026-04-28 13:46 42.74869 23.87058 12374 ft 327 kts 76°
2026-04-28 13:46 42.75230 23.90009 12144 ft 313 kts 88°
2026-04-28 13:46 42.74943 23.92900 11799 ft 307 kts 111°
2026-04-28 13:46 42.73779 23.95288 11472 ft 303 kts 138°
2026-04-28 13:47 42.72068 23.96890 11157 ft 296 kts 158°
2026-04-28 13:47 42.70133 23.97734 10799 ft 289 kts 176°
2026-04-28 13:47 42.68201 23.97445 10468 ft 277 kts 208°
2026-04-28 13:47 42.66781 23.95795 10073 ft 268 kts 243°
2026-04-28 13:48 42.66353 23.93433 9637 ft 261 kts 275°
2026-04-28 13:48 42.66626 23.91032 9181 ft 257 kts 278°
2026-04-28 13:48 42.66810 23.88595 8758 ft 259 kts 276°
2026-04-28 13:48 42.66965 23.86172 8422 ft 257 kts 276°
2026-04-28 13:49 42.67114 23.83762 8084 ft 255 kts 276°
2026-04-28 13:49 42.67261 23.81353 7713 ft 255 kts 276°
2026-04-28 13:49 42.67404 23.78950 7361 ft 256 kts 276°
2026-04-28 13:49 42.67552 23.76528 7066 ft 256 kts 277°
2026-04-28 13:50 42.67695 23.74185 6941 ft 248 kts 276°
2026-04-28 13:50 42.67829 23.71887 6882 ft 237 kts 277°
2026-04-28 13:50 42.67958 23.69711 6707 ft 228 kts 277°
2026-04-28 13:50 42.68098 23.67555 6254 ft 233 kts 277°
2026-04-28 13:51 42.68247 23.65367 5841 ft 234 kts 277°
2026-04-28 13:51 42.68360 23.63147 5402 ft 234 kts 276°
2026-04-28 13:51 42.68472 23.60933 4852 ft 233 kts 277°
2026-04-28 13:51 42.68602 23.58733 4192 ft 233 kts 277°
2026-04-28 13:52 42.68684 23.57279 3871 ft 231 kts 277°
2026-04-28 13:52 42.68835 23.55137 3473 ft 227 kts 279°
2026-04-28 13:52 42.69049 23.52998 3152 ft 226 kts 279°
2026-04-28 13:52 42.69187 23.50884 2881 ft 215 kts 273°
2026-04-28 13:53 42.69209 23.48988 2580 ft 190 kts 277°
2026-04-28 13:53 42.69295 23.47302 2314 ft 167 kts 278°
2026-04-28 13:53 42.69382 23.45873 2058 ft 139 kts 278°
2026-04-28 13:53 42.69469 23.44629 1870 ft 128 kts 278°
2026-04-28 13:54 42.69540 23.43476 1768 ft 117 kts 278°
2026-04-28 13:54 42.69605 23.42506 1755 ft 82 kts 275°
2026-04-28 13:54 42.69635 23.41981 1748 ft 29 kts 275°
2026-04-28 13:54 42.69637 23.41825 1746 ft 19 kts 268°
2026-04-28 13:55 42.69598 23.41610 1748 ft 24 kts 247°
2026-04-28 13:55 42.69524 23.41407 1746 ft 24 kts 243°
2026-04-28 13:55 42.69431 23.41223 1746 ft 17 kts 210°
2026-04-28 13:55 42.69346 23.41187 1748 ft 13 kts 194°
2026-04-28 13:56 42.69260 23.41160 1750 ft 13 kts 192°
2026-04-28 13:56 42.69173 23.41135 1745 ft 13 kts 192°
2026-04-28 13:56 42.69123 23.41071 1745 ft 4 kts 238°
2026-04-28 13:56 42.69099 23.41056 1746 ft 4 kts 180°
2026-04-28 13:57 42.69072 23.41067 1748 ft 4 kts 163°
2026-04-28 13:57 42.69045 23.41078 1745 ft 4 kts 163°
2026-04-28 13:57 42.69031 23.41083 1745 ft 0 kts 163°